| time (UTC) | temp F | wind direction | speed MPH | gust MPH | rain 1hr in | rain 24hr in | rain mn in | humidity % | barometer mb |
| 20260507025804 | 55 | 188 | 0.0 | 3.0 | 0.00 | 0.00 | 0.00 | 61 | 1016.6 |
| 20260507025704 | 55 | 188 | 0.0 | 3.0 | 0.00 | 0.00 | 0.00 | 61 | 1016.3 |
| 20260507025604 | 55 | 170 | 0.0 | 1.0 | 0.00 | 0.00 | 0.00 | 61 | 1016.4 |
| 20260507025525 | 55 | 170 | 0.0 | 1.0 | 0.00 | 0.00 | 0.00 | 61 | 1016.2 |
| 20260507025404 | 55 | 180 | 0.0 | 1.0 | 0.00 | 0.00 | 0.00 | 61 | 1016.1 |
| 20260507025306 | 55 | 180 | 0.0 | 1.0 | 0.00 | 0.00 | 0.00 | 61 | 1016.3 |
| 20260507025204 | 55 | 181 | 0.0 | 1.0 | 0.00 | 0.00 | 0.00 | 61 | 1016.3 |
| 20260507025104 | 55 | 187 | 0.0 | 2.0 | 0.00 | 0.00 | 0.00 | 61 | 1016.3 |
| 20260507025004 | 55 | 187 | 0.0 | 2.0 | 0.00 | 0.00 | 0.00 | 61 | 1016.3 |
| 20260507024904 | 55 | 187 | 0.0 | 2.0 | 0.00 | 0.00 | 0.00 | 61 | 1016.5 |
| 20260507024825 | 55 | 187 | 0.0 | 2.0 | 0.00 | 0.00 | 0.00 | 61 | 1016.3 |
| 20260507024704 | 55 | 187 | 0.0 | 2.0 | 0.00 | 0.00 | 0.00 | 61 | 1016.5 |
| 20260507024604 | 55 | 191 | 0.0 | 2.0 | 0.00 | 0.00 | 0.00 | 61 | 1016.5 |
| 20260507024525 | 55 | 191 | 0.0 | 2.0 | 0.00 | 0.00 | 0.00 | 61 | 1016.4 |
| 20260507024404 | 55 | 191 | 0.0 | 2.0 | 0.00 | 0.00 | 0.00 | 61 | 1016.2 |
| 20260507024304 | 55 | 191 | 0.0 | 2.0 | 0.00 | 0.00 | 0.00 | 61 | 1016.3 |
| 20260507024225 | 55 | 195 | 0.0 | 2.0 | 0.00 | 0.00 | 0.00 | 61 | 1016.3 |
| 20260507024125 | 55 | 0 | 0.0 | 0.0 | 0.00 | 0.00 | 0.00 | 61 | 1016.3 |
| 20260507024025 | 55 | 0 | 0.0 | 0.0 | 0.00 | 0.00 | 0.00 | 61 | 1016.3 |
| 20260507023904 | 55 | 0 | 0.0 | 0.0 | 0.00 | 0.00 | 0.00 | 61 | 1016.3 |
| 20260507023804 | 55 | 0 | 0.0 | 0.0 | 0.00 | 0.00 | 0.00 | 61 | 1016.2 |
| 20260507023704 | 55 | 190 | 0.0 | 2.0 | 0.00 | 0.00 | 0.00 | 61 | 1016.4 |
| 20260507023625 | 55 | 183 | 0.0 | 2.0 | 0.00 | 0.00 | 0.00 | 61 | 1016.2 |
| 20260507023504 | 55 | 183 | 0.0 | 2.0 | 0.00 | 0.00 | 0.00 | 61 | 1016.4 |
| 20260507023425 | 55 | 186 | 0.0 | 3.0 | 0.00 | 0.00 | 0.00 | 61 | 1016.1 |
| 20260507023304 | 55 | 183 | 0.0 | 3.0 | 0.00 | 0.00 | 0.00 | 61 | 1016.3 |
| 20260507023204 | 56 | 182 | 0.0 | 3.0 | 0.00 | 0.00 | 0.00 | 60 | 1016.4 |
| 20260507023103 | 56 | 182 | 0.0 | 3.0 | 0.00 | 0.00 | 0.00 | 60 | 1016.4 |
| 20260507023004 | 56 | 185 | 0.0 | 3.0 | 0.00 | 0.00 | 0.00 | 60 | 1016.4 |
| 20260507022925 | 56 | 185 | 0.0 | 3.0 | 0.00 | 0.00 | 0.00 | 60 | 1016.3 |
| 20260507022825 | 56 | 184 | 0.0 | 3.0 | 0.00 | 0.00 | 0.00 | 60 | 1016.3 |
| 20260507022704 | 56 | 186 | 0.0 | 3.0 | 0.00 | 0.00 | 0.00 | 60 | 1016.3 |
| 20260507022604 | 56 | 191 | 0.0 | 3.0 | 0.00 | 0.00 | 0.00 | 60 | 1016.2 |
| 20260507022504 | 56 | 192 | 0.0 | 3.0 | 0.00 | 0.00 | 0.00 | 60 | 1016.4 |
| 20260507022404 | 56 | 192 | 0.0 | 3.0 | 0.00 | 0.00 | 0.00 | 60 | 1016.3 |
| 20260507022306 | 56 | 196 | 0.0 | 3.0 | 0.00 | 0.00 | 0.00 | 60 | 1016.4 |
| 20260507022225 | 56 | 196 | 0.0 | 3.0 | 0.00 | 0.00 | 0.00 | 60 | 1016.2 |
| 20260507022104 | 56 | 199 | 0.0 | 3.0 | 0.00 | 0.00 | 0.00 | 60 | 1016.4 |
| 20260507022025 | 56 | 198 | 0.0 | 3.0 | 0.00 | 0.00 | 0.00 | 60 | 1016.6 |
| 20260507021904 | 56 | 196 | 0.0 | 3.0 | 0.00 | 0.00 | 0.00 | 60 | 1016.2 |
| 20260507021804 | 56 | 200 | 0.0 | 3.0 | 0.00 | 0.00 | 0.00 | 60 | 1016.5 |
| 20260507021704 | 56 | 192 | 0.0 | 3.0 | 0.00 | 0.00 | 0.00 | 60 | 1016.3 |
| 20260507021604 | 56 | 189 | 0.0 | 3.0 | 0.00 | 0.00 | 0.00 | 60 | 1016.4 |
| 20260507021504 | 56 | 187 | 0.0 | 1.0 | 0.00 | 0.00 | 0.00 | 60 | 1016.4 |
| 20260507021404 | 56 | 183 | 0.0 | 2.0 | 0.00 | 0.00 | 0.00 | 60 | 1016.1 |
| 20260507021304 | 56 | 191 | 0.0 | 2.0 | 0.00 | 0.00 | 0.00 | 60 | 1016.6 |
| 20260507021204 | 56 | 191 | 0.0 | 2.0 | 0.00 | 0.00 | 0.00 | 60 | 1016.1 |
| 20260507021125 | 56 | 193 | 0.0 | 2.0 | 0.00 | 0.00 | 0.00 | 60 | 1016.1 |
| 20260507021025 | 56 | 196 | 0.0 | 2.0 | 0.00 | 0.00 | 0.00 | 60 | 1016.2 |
| 20260507020904 | 56 | 197 | 0.0 | 2.0 | 0.00 | 0.00 | 0.00 | 60 | 1016.3 |
| 20260507020804 | 56 | 198 | 0.0 | 2.0 | 0.00 | 0.00 | 0.00 | 60 | 1016.4 |
| 20260507020704 | 56 | 200 | 0.0 | 2.0 | 0.00 | 0.00 | 0.00 | 60 | 1016.5 |
| 20260507020606 | 56 | 202 | 0.0 | 2.0 | 0.00 | 0.00 | 0.00 | 60 | 1016.2 |
| 20260507020505 | 56 | 203 | 0.0 | 2.0 | 0.00 | 0.00 | 0.00 | 60 | 1016.2 |
| 20260507020404 | 56 | 207 | 0.0 | 2.0 | 0.00 | 0.00 | 0.00 | 60 | 1016.3 |
| 20260507020304 | 56 | 205 | 0.0 | 2.0 | 0.00 | 0.00 | 0.00 | 60 | 1016.4 |
| 20260507020204 | 56 | 205 | 0.0 | 2.0 | 0.00 | 0.00 | 0.00 | 60 | 1016.2 |
| 20260507020103 | 56 | 206 | 0.0 | 2.0 | 0.00 | 0.00 | 0.00 | 60 | 1016.3 |
| 20260507020004 | 56 | 202 | 0.0 | 1.0 | 0.00 | 0.00 | 0.00 | 60 | 1016.1 |
| 20260507015905 | 56 | 194 | 0.0 | 2.0 | 0.00 | 0.00 | 0.00 | 60 | 1016.3 |
| 20260507015804 | 56 | 191 | 0.0 | 2.0 | 0.00 | 0.00 | 0.00 | 61 | 1016.5 |
| 20260507015704 | 56 | 191 | 0.0 | 2.0 | 0.00 | 0.00 | 0.00 | 60 | 1016.3 |
| 20260507015604 | 56 | 191 | 0.0 | 2.0 | 0.00 | 0.00 | 0.00 | 60 | 1016.3 |
| 20260507015504 | 56 | 191 | 0.0 | 2.0 | 0.00 | 0.00 | 0.00 | 60 | 1016.3 |
| 20260507015404 | 56 | 184 | 0.0 | 2.0 | 0.00 | 0.00 | 0.00 | 61 | 1016.1 |
| 20260507015306 | 56 | 179 | 0.0 | 2.0 | 0.00 | 0.00 | 0.00 | 60 | 1016.2 |
| 20260507015204 | 56 | 177 | 0.0 | 2.0 | 0.00 | 0.00 | 0.00 | 60 | 1016.3 |
| 20260507015104 | 56 | 176 | 0.0 | 2.0 | 0.00 | 0.00 | 0.00 | 60 | 1016.3 |
| 20260507015004 | 56 | 187 | 0.0 | 2.0 | 0.00 | 0.00 | 0.00 | 60 | 1016.2 |
| 20260507014904 | 56 | 187 | 0.0 | 2.0 | 0.00 | 0.00 | 0.00 | 61 | 1016.3 |
| 20260507014804 | 56 | 187 | 0.0 | 2.0 | 0.00 | 0.00 | 0.00 | 61 | 1016.2 |
| 20260507014704 | 56 | 187 | 0.0 | 2.0 | 0.00 | 0.00 | 0.00 | 61 | 1016.3 |
| 20260507014604 | 56 | 187 | 0.0 | 2.0 | 0.00 | 0.00 | 0.00 | 61 | 1016.3 |
| 20260507014504 | 56 | 187 | 0.0 | 2.0 | 0.00 | 0.00 | 0.00 | 61 | 1016.1 |
| 20260507014404 | 56 | 187 | 0.0 | 2.0 | 0.00 | 0.00 | 0.00 | 60 | 1016.1 |
| 20260507014304 | 56 | 190 | 0.0 | 2.0 | 0.00 | 0.00 | 0.00 | 61 | 1016.4 |
| 20260507014204 | 55 | 195 | 0.0 | 2.0 | 0.00 | 0.00 | 0.00 | 61 | 1016.5 |
| 20260507014104 | 55 | 199 | 0.0 | 2.0 | 0.00 | 0.00 | 0.00 | 61 | 1016.3 |
| 20260507014004 | 55 | 162 | 0.0 | 1.0 | 0.00 | 0.00 | 0.00 | 61 | 1016.1 |
| 20260507013925 | 55 | 162 | 0.0 | 1.0 | 0.00 | 0.00 | 0.00 | 61 | 1016.2 |
| 20260507013804 | 55 | 177 | 0.0 | 1.0 | 0.00 | 0.00 | 0.00 | 61 | 1016.2 |
| 20260507013704 | 55 | 177 | 0.0 | 1.0 | 0.00 | 0.00 | 0.00 | 61 | 1016.2 |
| 20260507013604 | 56 | 172 | 0.0 | 4.0 | 0.00 | 0.00 | 0.00 | 61 | 1016.3 |
| 20260507013525 | 56 | 172 | 0.0 | 4.0 | 0.00 | 0.00 | 0.00 | 61 | 1016.1 |
| 20260507013404 | 56 | 172 | 0.0 | 4.0 | 0.00 | 0.00 | 0.00 | 61 | 1016.2 |
| 20260507013304 | 56 | 174 | 0.0 | 4.0 | 0.00 | 0.00 | 0.00 | 61 | 1016.0 |
| 20260507013204 | 56 | 174 | 0.0 | 4.0 | 0.00 | 0.00 | 0.00 | 61 | 1016.2 |
| 20260507013104 | 56 | 174 | 0.0 | 4.0 | 0.00 | 0.00 | 0.00 | 61 | 1016.4 |
| 20260507013025 | 56 | 174 | 0.0 | 4.0 | 0.00 | 0.00 | 0.00 | 61 | 1016.1 |
| 20260507012904 | 56 | 173 | 0.0 | 4.0 | 0.00 | 0.00 | 0.00 | 60 | 1016.1 |
| 20260507012804 | 56 | 173 | 0.0 | 4.0 | 0.00 | 0.00 | 0.00 | 60 | 1016.1 |
| 20260507012704 | 56 | 173 | 0.0 | 4.0 | 0.00 | 0.00 | 0.00 | 60 | 1016.2 |
| 20260507012604 | 56 | 177 | 0.0 | 4.0 | 0.00 | 0.00 | 0.00 | 60 | 1016.0 |
| 20260507012504 | 56 | 180 | 0.0 | 2.0 | 0.00 | 0.00 | 0.00 | 60 | 1016.1 |
| 20260507012404 | 56 | 177 | 0.0 | 2.0 | 0.00 | 0.00 | 0.00 | 60 | 1016.0 |
| 20260507012325 | 56 | 174 | 0.0 | 1.0 | 0.00 | 0.00 | 0.00 | 60 | 1016.0 |
| 20260507012204 | 56 | 174 | 0.0 | 1.0 | 0.00 | 0.00 | 0.00 | 60 | 1016.1 |
| 20260507012104 | 56 | 173 | 0.0 | 2.0 | 0.00 | 0.00 | 0.00 | 60 | 1016.2 |
| 20260507012004 | 56 | 173 | 0.0 | 2.0 | 0.00 | 0.00 | 0.00 | 60 | 1016.2 |
| 20260507011904 | 56 | 173 | 0.0 | 2.0 | 0.00 | 0.00 | 0.00 | 60 | 1016.2 |
| 20260507011804 | 56 | 168 | 0.0 | 2.0 | 0.00 | 0.00 | 0.00 | 60 | 1016.3 |
| 20260507011704 | 56 | 170 | 0.0 | 2.0 | 0.00 | 0.00 | 0.00 | 60 | 1016.2 |
| 20260507011604 | 56 | 170 | 0.0 | 2.0 | 0.00 | 0.00 | 0.00 | 59 | 1016.2 |
| 20260507011504 | 56 | 177 | 0.0 | 3.0 | 0.00 | 0.00 | 0.00 | 59 | 1016.2 |
| 20260507011404 | 57 | 176 | 0.0 | 3.0 | 0.00 | 0.00 | 0.00 | 59 | 1016.1 |
| 20260507011304 | 57 | 176 | 0.0 | 3.0 | 0.00 | 0.00 | 0.00 | 59 | 1016.2 |
| 20260507011225 | 57 | 174 | 0.0 | 3.0 | 0.00 | 0.00 | 0.00 | 59 | 1016.1 |
| 20260507011104 | 57 | 170 | 1.0 | 4.0 | 0.00 | 0.00 | 0.00 | 59 | 1016.3 |
| 20260507011025 | 57 | 168 | 1.0 | 6.0 | 0.00 | 0.00 | 0.00 | 59 | 1015.9 |
| 20260507010904 | 57 | 168 | 1.0 | 6.0 | 0.00 | 0.00 | 0.00 | 59 | 1016.0 |
| 20260507010804 | 57 | 172 | 1.0 | 6.0 | 0.00 | 0.00 | 0.00 | 58 | 1016.0 |
| 20260507010704 | 57 | 173 | 1.0 | 6.0 | 0.00 | 0.00 | 0.00 | 58 | 1016.1 |
| 20260507010625 | 57 | 172 | 1.0 | 6.0 | 0.00 | 0.00 | 0.00 | 58 | 1016.2 |
| 20260507010504 | 57 | 170 | 1.0 | 6.0 | 0.00 | 0.00 | 0.00 | 58 | 1016.3 |
| 20260507010404 | 58 | 169 | 1.0 | 6.0 | 0.00 | 0.00 | 0.00 | 58 | 1016.2 |
| 20260507010304 | 58 | 171 | 1.0 | 6.0 | 0.00 | 0.00 | 0.00 | 58 | 1016.0 |
| 20260507010225 | 57 | 172 | 1.0 | 6.0 | 0.00 | 0.00 | 0.00 | 58 | 1016.1 |
| 20260507010104 | 57 | 177 | 0.0 | 6.0 | 0.00 | 0.00 | 0.00 | 58 | 1016.1 |
| 20260507010004 | 58 | 183 | 0.0 | 3.0 | 0.00 | 0.00 | 0.00 | 58 | 1016.0 |
| 20260507005925 | 58 | 183 | 0.0 | 3.0 | 0.00 | 0.00 | 0.00 | 58 | 1016.0 |
| 20260507005804 | 58 | 179 | 0.0 | 2.0 | 0.00 | 0.00 | 0.00 | 58 | 1016.3 |
| 20260507005703 | 58 | 178 | 0.0 | 2.0 | 0.00 | 0.00 | 0.00 | 58 | 1016.1 |
| 20260507005605 | 58 | 181 | 0.0 | 2.0 | 0.00 | 0.00 | 0.00 | 58 | 1016.1 |
| 20260507005504 | 58 | 179 | 0.0 | 2.0 | 0.00 | 0.00 | 0.00 | 58 | 1016.0 |
| 20260507005403 | 57 | 179 | 0.0 | 2.0 | 0.00 | 0.00 | 0.00 | 58 | 1016.0 |
| 20260507005305 | 57 | 176 | 0.0 | 2.0 | 0.00 | 0.00 | 0.00 | 58 | 1016.1 |
| 20260507005225 | 57 | 175 | 0.0 | 2.0 | 0.00 | 0.00 | 0.00 | 58 | 1016.0 |
| 20260507005104 | 57 | 170 | 0.0 | 2.0 | 0.00 | 0.00 | 0.00 | 59 | 1016.1 |
| 20260507005025 | 57 | 172 | 0.0 | 2.0 | 0.00 | 0.00 | 0.00 | 59 | 1016.1 |
| 20260507004904 | 57 | 171 | 0.0 | 2.0 | 0.00 | 0.00 | 0.00 | 58 | 1016.0 |
| 20260507004803 | 57 | 170 | 0.0 | 2.0 | 0.00 | 0.00 | 0.00 | 58 | 1016.1 |
| 20260507004724 | 57 | 170 | 0.0 | 2.0 | 0.00 | 0.00 | 0.00 | 58 | 1016.2 |
| 20260507004604 | 57 | 170 | 0.0 | 2.0 | 0.00 | 0.00 | 0.00 | 58 | 1015.9 |
| 20260507004504 | 57 | 169 | 0.0 | 2.0 | 0.00 | 0.00 | 0.00 | 58 | 1016.1 |
| 20260507004404 | 57 | 169 | 0.0 | 2.0 | 0.00 | 0.00 | 0.00 | 58 | 1016.2 |
| 20260507004304 | 57 | 169 | 0.0 | 2.0 | 0.00 | 0.00 | 0.00 | 58 | 1016.3 |
| 20260507004225 | 57 | 167 | 0.0 | 2.0 | 0.00 | 0.00 | 0.00 | 58 | 1016.2 |
| 20260507004104 | 57 | 166 | 0.0 | 3.0 | 0.00 | 0.00 | 0.00 | 58 | 1016.2 |
| 20260507004003 | 57 | 173 | 0.0 | 3.0 | 0.00 | 0.00 | 0.00 | 59 | 1015.9 |
| 20260507003903 | 57 | 173 | 0.0 | 3.0 | 0.00 | 0.00 | 0.00 | 59 | 1016.0 |
| 20260507003804 | 57 | 176 | 0.0 | 4.0 | 0.00 | 0.00 | 0.00 | 58 | 1015.9 |
| 20260507003704 | 57 | 177 | 0.0 | 4.0 | 0.00 | 0.00 | 0.00 | 58 | 1016.2 |
| 20260507003604 | 57 | 181 | 0.0 | 4.0 | 0.00 | 0.00 | 0.00 | 58 | 1016.0 |
| 20260507003504 | 57 | 184 | 0.0 | 4.0 | 0.00 | 0.00 | 0.00 | 58 | 1016.1 |
| 20260507003404 | 58 | 183 | 1.0 | 4.0 | 0.00 | 0.00 | 0.00 | 58 | 1016.2 |
| 20260507003303 | 58 | 183 | 1.0 | 4.0 | 0.00 | 0.00 | 0.00 | 58 | 1016.1 |
| 20260507003204 | 58 | 180 | 1.0 | 4.0 | 0.00 | 0.00 | 0.00 | 58 | 1016.1 |
| 20260507003104 | 58 | 182 | 1.0 | 4.0 | 0.00 | 0.00 | 0.00 | 58 | 1016.1 |
| 20260507003025 | 58 | 182 | 0.0 | 4.0 | 0.00 | 0.00 | 0.00 | 58 | 1016.0 |
| 20260507002903 | 58 | 182 | 0.0 | 4.0 | 0.00 | 0.00 | 0.00 | 58 | 1015.8 |
| 20260507002803 | 58 | 183 | 0.0 | 4.0 | 0.00 | 0.00 | 0.00 | 58 | 1016.3 |
| 20260507002704 | 58 | 182 | 0.0 | 4.0 | 0.00 | 0.00 | 0.00 | 57 | 1016.0 |
| 20260507002603 | 58 | 194 | 0.0 | 6.0 | 0.00 | 0.00 | 0.00 | 57 | 1016.1 |
| 20260507002503 | 58 | 188 | 0.0 | 6.0 | 0.00 | 0.00 | 0.00 | 57 | 1016.0 |
| 20260507002404 | 58 | 182 | 0.0 | 6.0 | 0.00 | 0.00 | 0.00 | 57 | 1016.1 |
| 20260507002306 | 58 | 177 | 1.0 | 6.0 | 0.00 | 0.00 | 0.00 | 57 | 1016.2 |
| 20260507002205 | 58 | 180 | 1.0 | 6.0 | 0.00 | 0.00 | 0.00 | 57 | 1016.0 |
| 20260507002103 | 58 | 182 | 1.0 | 6.0 | 0.00 | 0.00 | 0.00 | 57 | 1016.0 |
| 20260507002004 | 58 | 182 | 1.0 | 6.0 | 0.00 | 0.00 | 0.00 | 57 | 1016.1 |
| 20260507001904 | 58 | 182 | 1.0 | 6.0 | 0.00 | 0.00 | 0.00 | 57 | 1016.1 |
| 20260507001825 | 58 | 182 | 1.0 | 6.0 | 0.00 | 0.00 | 0.00 | 57 | 1015.8 |
| 20260507001704 | 58 | 191 | 1.0 | 8.0 | 0.00 | 0.00 | 0.00 | 57 | 1016.1 |
| 20260507001604 | 58 | 185 | 1.0 | 8.0 | 0.00 | 0.00 | 0.00 | 57 | 1016.0 |
| 20260507001525 | 58 | 185 | 1.0 | 8.0 | 0.00 | 0.00 | 0.00 | 57 | 1016.0 |
| 20260507001404 | 58 | 184 | 1.0 | 8.0 | 0.00 | 0.00 | 0.00 | 57 | 1016.2 |
| 20260507001303 | 58 | 190 | 1.0 | 8.0 | 0.00 | 0.00 | 0.00 | 56 | 1016.0 |
| 20260507001204 | 58 | 190 | 1.0 | 8.0 | 0.00 | 0.00 | 0.00 | 56 | 1016.0 |
| 20260507001103 | 58 | 190 | 1.0 | 8.0 | 0.00 | 0.00 | 0.00 | 56 | 1016.2 |
| 20260507001004 | 58 | 188 | 0.0 | 8.0 | 0.00 | 0.00 | 0.00 | 56 | 1015.9 |
| 20260507000904 | 58 | 187 | 1.0 | 8.0 | 0.00 | 0.00 | 0.00 | 56 | 1016.1 |
| 20260507000804 | 58 | 188 | 1.0 | 8.0 | 0.00 | 0.00 | 0.00 | 56 | 1015.9 |
| 20260507000704 | 58 | 175 | 0.0 | 4.0 | 0.00 | 0.00 | 0.00 | 56 | 1016.1 |
| 20260507000604 | 59 | 171 | 1.0 | 6.0 | 0.00 | 0.00 | 0.00 | 56 | 1016.2 |
| 20260507000504 | 59 | 171 | 1.0 | 6.0 | 0.00 | 0.00 | 0.00 | 56 | 1015.8 |
| 20260507000405 | 59 | 175 | 1.0 | 6.0 | 0.00 | 0.00 | 0.00 | 56 | 1015.9 |
| 20260507000325 | 59 | 176 | 0.0 | 6.0 | 0.00 | 0.00 | 0.00 | 56 | 1015.8 |
| 20260507000205 | 59 | 175 | 0.0 | 6.0 | 0.00 | 0.00 | 0.00 | 56 | 1015.9 |
| 20260507000104 | 59 | 175 | 1.0 | 6.0 | 0.00 | 0.00 | 0.00 | 56 | 1015.9 |
| 20260507000004 | 59 | 173 | 1.0 | 6.0 | 0.00 | 0.00 | 0.00 | 56 | 1016.0 |
| 20260506235904 | 59 | 173 | 1.0 | 6.0 | 0.00 | 0.00 | 0.00 | 56 | 1015.8 |
| 20260506235804 | 59 | 171 | 1.0 | 6.0 | 0.00 | 0.00 | 0.00 | 56 | 1015.9 |
| 20260506235704 | 59 | 171 | 1.0 | 6.0 | 0.00 | 0.00 | 0.00 | 56 | 1015.9 |
| 20260506235604 | 59 | 177 | 1.0 | 6.0 | 0.00 | 0.00 | 0.00 | 56 | 1016.0 |
| 20260506235525 | 59 | 177 | 1.0 | 6.0 | 0.00 | 0.00 | 0.00 | 56 | 1015.9 |
| 20260506235404 | 59 | 175 | 1.0 | 6.0 | 0.00 | 0.00 | 0.00 | 56 | 1015.9 |
| 20260506235306 | 59 | 176 | 1.0 | 6.0 | 0.00 | 0.00 | 0.00 | 56 | 1016.1 |
| 20260506235204 | 59 | 176 | 1.0 | 6.0 | 0.00 | 0.00 | 0.00 | 56 | 1015.9 |
| 20260506235124 | 59 | 176 | 1.0 | 6.0 | 0.00 | 0.00 | 0.00 | 56 | 1016.0 |
| 20260506235004 | 59 | 177 | 1.0 | 4.0 | 0.00 | 0.00 | 0.00 | 56 | 1015.9 |
| 20260506234903 | 59 | 181 | 1.0 | 4.0 | 0.00 | 0.00 | 0.00 | 56 | 1015.9 |
| 20260506234804 | 59 | 182 | 1.0 | 3.0 | 0.00 | 0.00 | 0.00 | 56 | 1016.0 |
| 20260506234703 | 59 | 183 | 1.0 | 3.0 | 0.00 | 0.00 | 0.00 | 56 | 1015.9 |
| 20260506234604 | 59 | 179 | 1.0 | 3.0 | 0.00 | 0.00 | 0.00 | 56 | 1016.1 |
| 20260506234504 | 59 | 184 | 1.0 | 3.0 | 0.00 | 0.00 | 0.00 | 56 | 1016.0 |
| 20260506234404 | 59 | 188 | 0.0 | 3.0 | 0.00 | 0.00 | 0.00 | 56 | 1015.9 |
| 20260506234303 | 59 | 190 | 0.0 | 3.0 | 0.00 | 0.00 | 0.00 | 56 | 1015.8 |
| 20260506234225 | 59 | 198 | 1.0 | 4.0 | 0.00 | 0.00 | 0.00 | 55 | 1016.0 |
| 20260506234104 | 59 | 199 | 1.0 | 4.0 | 0.00 | 0.00 | 0.00 | 55 | 1016.0 |
| 20260506234003 | 59 | 202 | 1.0 | 4.0 | 0.00 | 0.00 | 0.00 | 55 | 1016.1 |
| 20260506233904 | 59 | 200 | 1.0 | 4.0 | 0.00 | 0.00 | 0.00 | 55 | 1015.8 |
| 20260506233804 | 59 | 210 | 1.0 | 6.0 | 0.00 | 0.00 | 0.00 | 55 | 1016.0 |
| 20260506233725 | 59 | 209 | 1.0 | 6.0 | 0.00 | 0.00 | 0.00 | 55 | 1016.1 |
| 20260506233625 | 59 | 212 | 1.0 | 6.0 | 0.00 | 0.00 | 0.00 | 55 | 1016.1 |
| 20260506233504 | 59 | 209 | 1.0 | 6.0 | 0.00 | 0.00 | 0.00 | 55 | 1016.2 |
| 20260506233404 | 59 | 208 | 1.0 | 6.0 | 0.00 | 0.00 | 0.00 | 55 | 1015.9 |
| 20260506233303 | 59 | 205 | 1.0 | 6.0 | 0.00 | 0.00 | 0.00 | 55 | 1016.3 |
| 20260506233225 | 59 | 200 | 1.0 | 6.0 | 0.00 | 0.00 | 0.00 | 55 | 1015.9 |
| 20260506233104 | 59 | 199 | 1.0 | 6.0 | 0.00 | 0.00 | 0.00 | 55 | 1016.0 |
| 20260506233004 | 59 | 202 | 1.0 | 6.0 | 0.00 | 0.00 | 0.00 | 55 | 1016.0 |
| 20260506232904 | 59 | 205 | 1.0 | 6.0 | 0.00 | 0.00 | 0.00 | 55 | 1015.9 |
| 20260506232804 | 60 | 198 | 1.0 | 6.0 | 0.00 | 0.00 | 0.00 | 55 | 1016.1 |
| 20260506232704 | 60 | 198 | 1.0 | 6.0 | 0.00 | 0.00 | 0.00 | 55 | 1016.0 |
| 20260506232625 | 60 | 196 | 1.0 | 6.0 | 0.00 | 0.00 | 0.00 | 54 | 1016.0 |
| 20260506232504 | 59 | 201 | 1.0 | 6.0 | 0.00 | 0.00 | 0.00 | 54 | 1016.0 |
| 20260506232404 | 59 | 204 | 1.0 | 6.0 | 0.00 | 0.00 | 0.00 | 55 | 1016.1 |
| 20260506232306 | 59 | 206 | 1.0 | 6.0 | 0.00 | 0.00 | 0.00 | 55 | 1016.0 |
| 20260506232204 | 59 | 204 | 1.0 | 6.0 | 0.00 | 0.00 | 0.00 | 55 | 1016.0 |
| 20260506232103 | 59 | 203 | 1.0 | 6.0 | 0.00 | 0.00 | 0.00 | 55 | 1016.1 |
| 20260506232004 | 59 | 197 | 1.0 | 6.0 | 0.00 | 0.00 | 0.00 | 55 | 1015.8 |
| 20260506231903 | 59 | 193 | 1.0 | 6.0 | 0.00 | 0.00 | 0.00 | 55 | 1016.0 |
| 20260506231804 | 59 | 193 | 1.0 | 6.0 | 0.00 | 0.00 | 0.00 | 55 | 1016.1 |
| 20260506231703 | 59 | 193 | 0.0 | 6.0 | 0.00 | 0.00 | 0.00 | 55 | 1015.9 |
| 20260506231604 | 59 | 190 | 1.0 | 6.0 | 0.00 | 0.00 | 0.00 | 55 | 1016.0 |
| 20260506231504 | 60 | 188 | 1.0 | 6.0 | 0.00 | 0.00 | 0.00 | 55 | 1015.9 |
| 20260506231425 | 60 | 183 | 1.0 | 4.0 | 0.00 | 0.00 | 0.00 | 55 | 1015.8 |
| 20260506231304 | 59 | 180 | 1.0 | 4.0 | 0.00 | 0.00 | 0.00 | 54 | 1016.0 |
| 20260506231204 | 59 | 184 | 1.0 | 6.0 | 0.00 | 0.00 | 0.00 | 54 | 1015.9 |
| 20260506231104 | 59 | 187 | 1.0 | 6.0 | 0.00 | 0.00 | 0.00 | 54 | 1015.8 |
| 20260506231003 | 59 | 189 | 1.0 | 6.0 | 0.00 | 0.00 | 0.00 | 54 | 1015.9 |
| 20260506230904 | 60 | 191 | 1.0 | 6.0 | 0.00 | 0.00 | 0.00 | 55 | 1015.9 |
| 20260506230824 | 60 | 191 | 1.0 | 6.0 | 0.00 | 0.00 | 0.00 | 54 | 1016.1 |
| 20260506230704 | 60 | 191 | 1.0 | 6.0 | 0.00 | 0.00 | 0.00 | 54 | 1015.8 |
| 20260506230625 | 60 | 195 | 1.0 | 6.0 | 0.00 | 0.00 | 0.00 | 54 | 1015.9 |
| 20260506230503 | 60 | 197 | 0.0 | 6.0 | 0.00 | 0.00 | 0.00 | 54 | 1016.0 |
| 20260506230425 | 60 | 197 | 0.0 | 6.0 | 0.00 | 0.00 | 0.00 | 54 | 1015.8 |
| 20260506230304 | 60 | 201 | 0.0 | 6.0 | 0.00 | 0.00 | 0.00 | 54 | 1015.9 |
| 20260506230204 | 60 | 206 | 0.0 | 4.0 | 0.00 | 0.00 | 0.00 | 54 | 1015.9 |
| 20260506230103 | 60 | 199 | 0.0 | 4.0 | 0.00 | 0.00 | 0.00 | 54 | 1016.0 |
| 20260506230004 | 60 | 188 | 0.0 | 4.0 | 0.00 | 0.00 | 0.00 | 54 | 1015.9 |
| 20260506225903 | 60 | 180 | 0.0 | 4.0 | 0.00 | 0.00 | 0.00 | 54 | 1015.7 |
| 20260506225804 | 60 | 180 | 0.0 | 4.0 | 0.00 | 0.00 | 0.00 | 54 | 1015.9 |
| 20260506225703 | 60 | 181 | 1.0 | 4.0 | 0.00 | 0.00 | 0.00 | 54 | 1016.0 |
| 20260506225625 | 60 | 178 | 1.0 | 4.0 | 0.00 | 0.00 | 0.00 | 54 | 1015.9 |
| 20260506225503 | 60 | 179 | 1.0 | 4.0 | 0.00 | 0.00 | 0.00 | 54 | 1016.0 |
| 20260506225403 | 60 | 179 | 1.0 | 4.0 | 0.00 | 0.00 | 0.00 | 53 | 1015.9 |
| 20260506225305 | 60 | 180 | 1.0 | 4.0 | 0.00 | 0.00 | 0.00 | 53 | 1015.9 |
| 20260506225204 | 60 | 186 | 1.0 | 4.0 | 0.00 | 0.00 | 0.00 | 53 | 1015.8 |
| 20260506225104 | 60 | 187 | 1.0 | 4.0 | 0.00 | 0.00 | 0.00 | 53 | 1015.9 |
| 20260506225003 | 60 | 191 | 1.0 | 6.0 | 0.00 | 0.00 | 0.00 | 53 | 1015.9 |
| 20260506224904 | 60 | 200 | 1.0 | 6.0 | 0.00 | 0.00 | 0.00 | 53 | 1015.7 |
| 20260506224803 | 60 | 200 | 1.0 | 6.0 | 0.00 | 0.00 | 0.00 | 53 | 1015.9 |
| 20260506224703 | 60 | 197 | 1.0 | 6.0 | 0.00 | 0.00 | 0.00 | 53 | 1015.8 |
| 20260506224604 | 60 | 202 | 1.0 | 6.0 | 0.00 | 0.00 | 0.00 | 53 | 1015.8 |
| 20260506224504 | 60 | 203 | 1.0 | 6.0 | 0.00 | 0.00 | 0.00 | 53 | 1015.8 |
| 20260506224404 | 60 | 203 | 1.0 | 6.0 | 0.00 | 0.00 | 0.00 | 53 | 1015.9 |
| 20260506224303 | 60 | 199 | 1.0 | 6.0 | 0.00 | 0.00 | 0.00 | 52 | 1015.9 |
| 20260506224204 | 60 | 191 | 1.0 | 6.0 | 0.00 | 0.00 | 0.00 | 52 | 1015.8 |
| 20260506224104 | 60 | 191 | 1.0 | 6.0 | 0.00 | 0.00 | 0.00 | 52 | 1015.8 |
| 20260506224004 | 60 | 193 | 1.0 | 6.0 | 0.00 | 0.00 | 0.00 | 52 | 1015.9 |
| 20260506223925 | 60 | 185 | 1.0 | 7.0 | 0.00 | 0.00 | 0.00 | 52 | 1015.9 |
| 20260506223804 | 60 | 185 | 1.0 | 7.0 | 0.00 | 0.00 | 0.00 | 52 | 1015.9 |
| 20260506223703 | 60 | 187 | 1.0 | 7.0 | 0.00 | 0.00 | 0.00 | 52 | 1016.0 |
| 20260506223604 | 60 | 183 | 1.0 | 7.0 | 0.00 | 0.00 | 0.00 | 52 | 1015.8 |
| 20260506223504 | 60 | 177 | 1.0 | 7.0 | 0.00 | 0.00 | 0.00 | 52 | 1015.8 |
| 20260506223403 | 61 | 178 | 1.0 | 7.0 | 0.00 | 0.00 | 0.00 | 52 | 1015.9 |
| 20260506223303 | 61 | 184 | 1.0 | 7.0 | 0.00 | 0.00 | 0.00 | 52 | 1015.7 |
| 20260506223204 | 61 | 186 | 1.0 | 7.0 | 0.00 | 0.00 | 0.00 | 52 | 1016.1 |
| 20260506223104 | 61 | 186 | 1.0 | 7.0 | 0.00 | 0.00 | 0.00 | 52 | 1015.8 |
| 20260506223004 | 61 | 188 | 1.0 | 7.0 | 0.00 | 0.00 | 0.00 | 52 | 1016.0 |
| 20260506222904 | 61 | 191 | 0.0 | 6.0 | 0.00 | 0.00 | 0.00 | 52 | 1016.1 |
| 20260506222803 | 61 | 190 | 1.0 | 6.0 | 0.00 | 0.00 | 0.00 | 52 | 1015.7 |
| 20260506222703 | 61 | 194 | 0.0 | 4.0 | 0.00 | 0.00 | 0.00 | 52 | 1015.8 |
| 20260506222604 | 61 | 199 | 0.0 | 4.0 | 0.00 | 0.00 | 0.00 | 52 | 1015.9 |
| 20260506222503 | 61 | 196 | 0.0 | 4.0 | 0.00 | 0.00 | 0.00 | 52 | 1015.6 |
| 20260506222403 | 61 | 190 | 0.0 | 4.0 | 0.00 | 0.00 | 0.00 | 52 | 1015.9 |
| 20260506222306 | 61 | 179 | 0.0 | 4.0 | 0.00 | 0.00 | 0.00 | 52 | 1016.0 |
| 20260506222203 | 61 | 179 | 0.0 | 4.0 | 0.00 | 0.00 | 0.00 | 52 | 1015.8 |
| 20260506222125 | 61 | 179 | 0.0 | 4.0 | 0.00 | 0.00 | 0.00 | 52 | 1015.9 |
| 20260506222025 | 61 | 175 | 0.0 | 4.0 | 0.00 | 0.00 | 0.00 | 52 | 1015.9 |
| 20260506221924 | 61 | 174 | 0.0 | 4.0 | 0.00 | 0.00 | 0.00 | 52 | 1015.9 |
| 20260506221804 | 61 | 172 | 1.0 | 4.0 | 0.00 | 0.00 | 0.00 | 52 | 1015.9 |
| 20260506221704 | 61 | 169 | 1.0 | 4.0 | 0.00 | 0.00 | 0.00 | 52 | 1015.9 |
| 20260506221625 | 61 | 169 | 1.0 | 4.0 | 0.00 | 0.00 | 0.00 | 52 | 1015.7 |
| 20260506221504 | 61 | 167 | 0.0 | 4.0 | 0.00 | 0.00 | 0.00 | 52 | 1015.8 |
| 20260506221404 | 61 | 171 | 0.0 | 4.0 | 0.00 | 0.00 | 0.00 | 52 | 1015.9 |
| 20260506221304 | 61 | 173 | 0.0 | 4.0 | 0.00 | 0.00 | 0.00 | 52 | 1015.8 |
| 20260506221203 | 61 | 179 | 1.0 | 4.0 | 0.00 | 0.00 | 0.00 | 51 | 1015.8 |
| 20260506221125 | 61 | 178 | 1.0 | 4.0 | 0.00 | 0.00 | 0.00 | 51 | 1015.8 |
| 20260506221003 | 61 | 179 | 1.0 | 4.0 | 0.00 | 0.00 | 0.00 | 51 | 1015.9 |
| 20260506220903 | 61 | 179 | 1.0 | 4.0 | 0.00 | 0.00 | 0.00 | 51 | 1015.6 |
| 20260506220803 | 61 | 182 | 0.0 | 4.0 | 0.00 | 0.00 | 0.00 | 51 | 1015.7 |
| 20260506220703 | 61 | 181 | 0.0 | 4.0 | 0.00 | 0.00 | 0.00 | 51 | 1015.7 |
| 20260506220624 | 61 | 183 | 0.0 | 4.0 | 0.00 | 0.00 | 0.00 | 51 | 1015.9 |
| 20260506220503 | 61 | 183 | 0.0 | 4.0 | 0.00 | 0.00 | 0.00 | 51 | 1015.7 |
| 20260506220425 | 61 | 183 | 0.0 | 4.0 | 0.00 | 0.00 | 0.00 | 51 | 1015.7 |
| 20260506220304 | 61 | 185 | 0.0 | 4.0 | 0.00 | 0.00 | 0.00 | 51 | 1015.8 |
| 20260506220203 | 61 | 179 | 0.0 | 3.0 | 0.00 | 0.00 | 0.00 | 51 | 1015.7 |
| 20260506220104 | 62 | 172 | 0.0 | 6.0 | 0.00 | 0.00 | 0.00 | 51 | 1015.8 |
| 20260506220004 | 62 | 169 | 0.0 | 6.0 | 0.00 | 0.00 | 0.00 | 51 | 1015.6 |
| 20260506215904 | 62 | 168 | 0.0 | 6.0 | 0.00 | 0.00 | 0.00 | 51 | 1015.6 |
| 20260506215803 | 62 | 171 | 0.0 | 6.0 | 0.00 | 0.00 | 0.00 | 50 | 1015.7 |
| 20260506215703 | 62 | 183 | 1.0 | 6.0 | 0.00 | 0.00 | 0.00 | 50 | 1015.7 |
| 20260506215604 | 62 | 182 | 1.0 | 6.0 | 0.00 | 0.00 | 0.00 | 50 | 1015.6 |
| 20260506215503 | 62 | 183 | 1.0 | 6.0 | 0.00 | 0.00 | 0.00 | 50 | 1015.5 |
| 20260506215404 | 62 | 184 | 1.0 | 6.0 | 0.00 | 0.00 | 0.00 | 50 | 1015.6 |
| 20260506215306 | 62 | 188 | 1.0 | 6.0 | 0.00 | 0.00 | 0.00 | 49 | 1015.7 |
| 20260506215203 | 62 | 187 | 1.0 | 6.0 | 0.00 | 0.00 | 0.00 | 49 | 1015.7 |
| 20260506215104 | 63 | 193 | 1.0 | 4.0 | 0.00 | 0.00 | 0.00 | 49 | 1015.6 |
| 20260506215004 | 63 | 206 | 1.0 | 7.0 | 0.00 | 0.00 | 0.00 | 49 | 1015.6 |
| 20260506214904 | 63 | 207 | 1.0 | 7.0 | 0.00 | 0.00 | 0.00 | 49 | 1015.6 |
| 20260506214803 | 63 | 207 | 1.0 | 7.0 | 0.00 | 0.00 | 0.00 | 49 | 1015.7 |
| 20260506214704 | 63 | 204 | 1.0 | 7.0 | 0.00 | 0.00 | 0.00 | 49 | 1015.5 |
| 20260506214603 | 63 | 199 | 1.0 | 7.0 | 0.00 | 0.00 | 0.00 | 49 | 1015.8 |
| 20260506214504 | 63 | 197 | 1.0 | 7.0 | 0.00 | 0.00 | 0.00 | 49 | 1015.5 |
| 20260506214403 | 63 | 197 | 1.0 | 7.0 | 0.00 | 0.00 | 0.00 | 49 | 1015.5 |
| 20260506214303 | 63 | 202 | 1.0 | 7.0 | 0.00 | 0.00 | 0.00 | 49 | 1015.7 |
| 20260506214203 | 63 | 202 | 1.0 | 7.0 | 0.00 | 0.00 | 0.00 | 48 | 1015.7 |
| 20260506214104 | 63 | 205 | 1.0 | 7.0 | 0.00 | 0.00 | 0.00 | 48 | 1015.6 |
| 20260506214025 | 63 | 201 | 1.0 | 6.0 | 0.00 | 0.00 | 0.00 | 48 | 1015.5 |
| 20260506213904 | 63 | 201 | 1.0 | 6.0 | 0.00 | 0.00 | 0.00 | 49 | 1015.8 |
| 20260506213804 | 63 | 204 | 1.0 | 6.0 | 0.00 | 0.00 | 0.00 | 49 | 1015.8 |
| 20260506213704 | 63 | 203 | 1.0 | 6.0 | 0.00 | 0.00 | 0.00 | 49 | 1015.4 |
| 20260506213603 | 63 | 205 | 1.0 | 6.0 | 0.00 | 0.00 | 0.00 | 48 | 1015.4 |
| 20260506213504 | 63 | 209 | 1.0 | 6.0 | 0.00 | 0.00 | 0.00 | 48 | 1015.4 |
| 20260506213404 | 63 | 211 | 1.0 | 6.0 | 0.00 | 0.00 | 0.00 | 48 | 1015.6 |
| 20260506213303 | 64 | 206 | 1.0 | 6.0 | 0.00 | 0.00 | 0.00 | 48 | 1015.6 |
| 20260506213203 | 64 | 205 | 1.0 | 6.0 | 0.00 | 0.00 | 0.00 | 48 | 1015.6 |
| 20260506213104 | 64 | 203 | 1.0 | 6.0 | 0.00 | 0.00 | 0.00 | 48 | 1015.6 |
| 20260506213004 | 64 | 203 | 1.0 | 6.0 | 0.00 | 0.00 | 0.00 | 48 | 1015.5 |
| 20260506212904 | 64 | 203 | 1.0 | 6.0 | 0.00 | 0.00 | 0.00 | 48 | 1015.7 |
| 20260506212824 | 64 | 201 | 1.0 | 6.0 | 0.00 | 0.00 | 0.00 | 48 | 1015.4 |
| 20260506212703 | 64 | 203 | 1.0 | 6.0 | 0.00 | 0.00 | 0.00 | 48 | 1015.4 |
| 20260506212603 | 64 | 202 | 1.0 | 7.0 | 0.00 | 0.00 | 0.00 | 48 | 1015.5 |
| 20260506212504 | 64 | 201 | 1.0 | 7.0 | 0.00 | 0.00 | 0.00 | 48 | 1015.4 |
| 20260506212403 | 64 | 199 | 1.0 | 7.0 | 0.00 | 0.00 | 0.00 | 48 | 1015.5 |
| 20260506212306 | 64 | 197 | 1.0 | 7.0 | 0.00 | 0.00 | 0.00 | 48 | 1015.5 |
| 20260506212204 | 64 | 195 | 1.0 | 7.0 | 0.00 | 0.00 | 0.00 | 48 | 1015.5 |
| 20260506212125 | 64 | 200 | 0.0 | 7.0 | 0.00 | 0.00 | 0.00 | 48 | 1015.4 |
| 20260506212003 | 64 | 198 | 1.0 | 7.0 | 0.00 | 0.00 | 0.00 | 48 | 1015.7 |
| 20260506211925 | 64 | 198 | 1.0 | 7.0 | 0.00 | 0.00 | 0.00 | 48 | 1015.3 |
| 20260506211824 | 64 | 201 | 1.0 | 7.0 | 0.00 | 0.00 | 0.00 | 48 | 1015.4 |
| 20260506211703 | 64 | 203 | 1.0 | 7.0 | 0.00 | 0.00 | 0.00 | 48 | 1015.5 |
| 20260506211604 | 64 | 210 | 0.0 | 7.0 | 0.00 | 0.00 | 0.00 | 47 | 1015.3 |
| 20260506211503 | 64 | 206 | 0.0 | 6.0 | 0.00 | 0.00 | 0.00 | 47 | 1015.1 |
| 20260506211425 | 64 | 204 | 0.0 | 6.0 | 0.00 | 0.00 | 0.00 | 47 | 1015.1 |
| 20260506211305 | 64 | 198 | 1.0 | 6.0 | 0.00 | 0.00 | 0.00 | 47 | 1015.4 |
| 20260506211204 | 64 | 199 | 1.0 | 6.0 | 0.00 | 0.00 | 0.00 | 47 | 1015.6 |
| 20260506211103 | 64 | 202 | 1.0 | 6.0 | 0.00 | 0.00 | 0.00 | 47 | 1015.5 |
| 20260506211004 | 64 | 203 | 1.0 | 6.0 | 0.00 | 0.00 | 0.00 | 47 | 1015.3 |
| 20260506210904 | 64 | 205 | 1.0 | 6.0 | 0.00 | 0.00 | 0.00 | 47 | 1015.6 |
| 20260506210824 | 64 | 201 | 1.0 | 6.0 | 0.00 | 0.00 | 0.00 | 47 | 1015.3 |
| 20260506210704 | 64 | 198 | 1.0 | 4.0 | 0.00 | 0.00 | 0.00 | 47 | 1015.3 |
| 20260506210603 | 64 | 191 | 1.0 | 4.0 | 0.00 | 0.00 | 0.00 | 47 | 1015.3 |
| 20260506210503 | 64 | 191 | 1.0 | 4.0 | 0.00 | 0.00 | 0.00 | 47 | 1015.3 |
| 20260506210403 | 64 | 192 | 0.0 | 4.0 | 0.00 | 0.00 | 0.00 | 47 | 1015.4 |
| 20260506210304 | 64 | 202 | 0.0 | 3.0 | 0.00 | 0.00 | 0.00 | 47 | 1015.2 |
| 20260506210225 | 64 | 193 | 0.0 | 7.0 | 0.00 | 0.00 | 0.00 | 47 | 1015.3 |
| 20260506210103 | 64 | 191 | 0.0 | 7.0 | 0.00 | 0.00 | 0.00 | 47 | 1015.4 |
| 20260506210004 | 64 | 196 | 0.0 | 7.0 | 0.00 | 0.00 | 0.00 | 47 | 1015.4 |
| 20260506205903 | 64 | 186 | 1.0 | 7.0 | 0.00 | 0.00 | 0.00 | 47 | 1015.3 |
| 20260506205804 | 64 | 187 | 0.0 | 7.0 | 0.00 | 0.00 | 0.00 | 47 | 1015.2 |
| 20260506205703 | 64 | 180 | 1.0 | 7.0 | 0.00 | 0.00 | 0.00 | 47 | 1015.3 |
| 20260506205624 | 64 | 187 | 1.0 | 7.0 | 0.00 | 0.00 | 0.00 | 47 | 1015.3 |
| 20260506205503 | 65 | 189 | 1.0 | 7.0 | 0.00 | 0.00 | 0.00 | 47 | 1015.2 |
| 20260506205403 | 65 | 190 | 1.0 | 7.0 | 0.00 | 0.00 | 0.00 | 47 | 1015.3 |
| 20260506205306 | 65 | 187 | 1.0 | 7.0 | 0.00 | 0.00 | 0.00 | 46 | 1015.4 |
| 20260506205225 | 65 | 184 | 1.0 | 6.0 | 0.00 | 0.00 | 0.00 | 46 | 1015.3 |
| 20260506205125 | 65 | 185 | 1.0 | 6.0 | 0.00 | 0.00 | 0.00 | 46 | 1015.3 |
| 20260506205003 | 65 | 180 | 1.0 | 6.0 | 0.00 | 0.00 | 0.00 | 46 | 1015.4 |
| 20260506204904 | 65 | 186 | 1.0 | 6.0 | 0.00 | 0.00 | 0.00 | 46 | 1015.0 |
| 20260506204804 | 65 | 186 | 1.0 | 6.0 | 0.00 | 0.00 | 0.00 | 46 | 1015.4 |
| 20260506204725 | 64 | 192 | 1.0 | 6.0 | 0.00 | 0.00 | 0.00 | 46 | 1015.1 |
| 20260506204604 | 64 | 194 | 0.0 | 4.0 | 0.00 | 0.00 | 0.00 | 47 | 1015.1 |
| 20260506204525 | 64 | 193 | 0.0 | 4.0 | 0.00 | 0.00 | 0.00 | 47 | 1015.3 |
| 20260506204403 | 64 | 189 | 1.0 | 4.0 | 0.00 | 0.00 | 0.00 | 47 | 1015.3 |
| 20260506204303 | 65 | 190 | 1.0 | 4.0 | 0.00 | 0.00 | 0.00 | 47 | 1015.0 |
| 20260506204204 | 65 | 194 | 1.0 | 4.0 | 0.00 | 0.00 | 0.00 | 47 | 1015.1 |
| 20260506204104 | 65 | 192 | 1.0 | 4.0 | 0.00 | 0.00 | 0.00 | 47 | 1015.3 |
| 20260506204003 | 65 | 191 | 1.0 | 4.0 | 0.00 | 0.00 | 0.00 | 46 | 1015.1 |
| 20260506203903 | 65 | 191 | 1.0 | 4.0 | 0.00 | 0.00 | 0.00 | 47 | 1015.3 |
| 20260506203803 | 64 | 191 | 1.0 | 4.0 | 0.00 | 0.00 | 0.00 | 46 | 1015.3 |
| 20260506203725 | 64 | 190 | 1.0 | 4.0 | 0.00 | 0.00 | 0.00 | 46 | 1015.1 |
| 20260506203603 | 64 | 180 | 1.0 | 4.0 | 0.00 | 0.00 | 0.00 | 47 | 1015.1 |
| 20260506203504 | 64 | 180 | 1.0 | 4.0 | 0.00 | 0.00 | 0.00 | 47 | 1015.1 |
| 20260506203403 | 64 | 179 | 0.0 | 4.0 | 0.00 | 0.00 | 0.00 | 47 | 1015.0 |
| 20260506203303 | 64 | 178 | 0.0 | 4.0 | 0.00 | 0.00 | 0.00 | 47 | 1014.9 |
| 20260506203203 | 64 | 178 | 0.0 | 4.0 | 0.00 | 0.00 | 0.00 | 47 | 1014.9 |
| 20260506203125 | 64 | 174 | 0.0 | 4.0 | 0.00 | 0.00 | 0.00 | 47 | 1015.0 |
| 20260506203024 | 64 | 177 | 0.0 | 4.0 | 0.00 | 0.00 | 0.00 | 47 | 1015.0 |
| 20260506202903 | 64 | 188 | 0.0 | 4.0 | 0.00 | 0.00 | 0.00 | 47 | 1015.3 |
| 20260506202803 | 64 | 187 | 0.0 | 4.0 | 0.00 | 0.00 | 0.00 | 47 | 1014.9 |
| 20260506202725 | 64 | 187 | 0.0 | 4.0 | 0.00 | 0.00 | 0.00 | 47 | 1015.0 |
| 20260506202603 | 64 | 188 | 0.0 | 4.0 | 0.00 | 0.00 | 0.00 | 47 | 1015.1 |
| 20260506202504 | 64 | 189 | 0.0 | 4.0 | 0.00 | 0.00 | 0.00 | 47 | 1015.0 |
| 20260506202404 | 64 | 191 | 0.0 | 4.0 | 0.00 | 0.00 | 0.00 | 47 | 1014.9 |
| 20260506202306 | 64 | 191 | 0.0 | 4.0 | 0.00 | 0.00 | 0.00 | 47 | 1015.2 |
| 20260506202204 | 65 | 189 | 0.0 | 4.0 | 0.00 | 0.00 | 0.00 | 47 | 1015.0 |
| 20260506202103 | 65 | 188 | 0.0 | 4.0 | 0.00 | 0.00 | 0.00 | 47 | 1014.9 |
| 20260506202004 | 64 | 186 | 0.0 | 4.0 | 0.00 | 0.00 | 0.00 | 47 | 1015.0 |
| 20260506201903 | 64 | 174 | 0.0 | 3.0 | 0.00 | 0.00 | 0.00 | 47 | 1015.0 |
| 20260506201804 | 64 | 171 | 0.0 | 3.0 | 0.00 | 0.00 | 0.00 | 47 | 1015.1 |
| 20260506201724 | 64 | 171 | 0.0 | 3.0 | 0.00 | 0.00 | 0.00 | 47 | 1015.1 |
| 20260506201604 | 64 | 170 | 0.0 | 3.0 | 0.00 | 0.00 | 0.00 | 47 | 1015.0 |
| 20260506201503 | 64 | 172 | 0.0 | 3.0 | 0.00 | 0.00 | 0.00 | 47 | 1015.0 |
| 20260506201424 | 64 | 172 | 0.0 | 3.0 | 0.00 | 0.00 | 0.00 | 47 | 1015.0 |
| 20260506201304 | 64 | 174 | 0.0 | 3.0 | 0.00 | 0.00 | 0.00 | 47 | 1015.0 |
| 20260506201224 | 64 | 176 | 0.0 | 3.0 | 0.00 | 0.00 | 0.00 | 47 | 1015.0 |
| 20260506201104 | 64 | 171 | 0.0 | 3.0 | 0.00 | 0.00 | 0.00 | 47 | 1015.1 |
| 20260506201025 | 64 | 172 | 0.0 | 3.0 | 0.00 | 0.00 | 0.00 | 47 | 1015.0 |
| 20260506200903 | 64 | 163 | 0.0 | 1.0 | 0.00 | 0.00 | 0.00 | 47 | 1014.8 |
| 20260506200804 | 64 | 163 | 0.0 | 1.0 | 0.00 | 0.00 | 0.00 | 47 | 1015.0 |
| 20260506200703 | 64 | 164 | 0.0 | 1.0 | 0.00 | 0.00 | 0.00 | 47 | 1014.7 |
| 20260506200604 | 64 | 164 | 0.0 | 1.0 | 0.00 | 0.00 | 0.00 | 47 | 1015.0 |
| 20260506200525 | 64 | 164 | 0.0 | 1.0 | 0.00 | 0.00 | 0.00 | 47 | 1015.0 |
| 20260506200404 | 64 | 164 | 0.0 | 1.0 | 0.00 | 0.00 | 0.00 | 47 | 1015.0 |
| 20260506200303 | 64 | 168 | 0.0 | 1.0 | 0.00 | 0.00 | 0.00 | 47 | 1014.7 |
| 20260506200203 | 64 | 171 | 0.0 | 2.0 | 0.00 | 0.00 | 0.00 | 47 | 1015.0 |
| 20260506200104 | 64 | 173 | 0.0 | 2.0 | 0.00 | 0.00 | 0.00 | 47 | 1015.0 |
| 20260506200004 | 64 | 172 | 0.0 | 2.0 | 0.00 | 0.00 | 0.00 | 47 | 1014.9 |
| 20260506195903 | 64 | 175 | 0.0 | 2.0 | 0.00 | 0.00 | 0.00 | 47 | 1015.0 |
| 20260506195803 | 64 | 175 | 0.0 | 2.0 | 0.00 | 0.00 | 0.00 | 47 | 1014.8 |
| 20260506195704 | 64 | 175 | 0.0 | 2.0 | 0.00 | 0.00 | 0.00 | 47 | 1014.9 |
| 20260506195625 | 64 | 174 | 0.0 | 2.0 | 0.00 | 0.00 | 0.00 | 47 | 1015.1 |
| 20260506195503 | 64 | 171 | 0.0 | 2.0 | 0.00 | 0.00 | 0.00 | 47 | 1014.8 |
| 20260506195403 | 64 | 171 | 0.0 | 2.0 | 0.00 | 0.00 | 0.00 | 47 | 1014.9 |
| 20260506195306 | 64 | 171 | 0.0 | 2.0 | 0.00 | 0.00 | 0.00 | 46 | 1014.9 |
| 20260506195204 | 64 | 169 | 0.0 | 2.0 | 0.00 | 0.00 | 0.00 | 46 | 1015.0 |
| 20260506195103 | 64 | 163 | 0.0 | 1.0 | 0.00 | 0.00 | 0.00 | 47 | 1014.6 |
| 20260506195004 | 64 | 161 | 0.0 | 1.0 | 0.00 | 0.00 | 0.00 | 47 | 1014.8 |
| 20260506194903 | 64 | 161 | 0.0 | 1.0 | 0.00 | 0.00 | 0.00 | 47 | 1014.9 |
| 20260506194803 | 64 | 160 | 0.0 | 1.0 | 0.00 | 0.00 | 0.00 | 47 | 1014.9 |
| 20260506194703 | 64 | 160 | 0.0 | 1.0 | 0.00 | 0.00 | 0.00 | 47 | 1014.9 |
| 20260506194603 | 64 | 158 | 0.0 | 1.0 | 0.00 | 0.00 | 0.00 | 47 | 1015.0 |
| 20260506194504 | 64 | 168 | 0.0 | 2.0 | 0.00 | 0.00 | 0.00 | 47 | 1014.8 |
| 20260506194403 | 64 | 170 | 0.0 | 2.0 | 0.00 | 0.00 | 0.00 | 47 | 1014.9 |
| 20260506194303 | 64 | 171 | 0.0 | 2.0 | 0.00 | 0.00 | 0.00 | 47 | 1014.9 |
| 20260506194225 | 64 | 171 | 0.0 | 2.0 | 0.00 | 0.00 | 0.00 | 47 | 1014.8 |
| 20260506194104 | 65 | 172 | 0.0 | 2.0 | 0.00 | 0.00 | 0.00 | 46 | 1014.9 |
| 20260506194003 | 65 | 177 | 0.0 | 2.0 | 0.00 | 0.00 | 0.00 | 46 | 1014.6 |
| 20260506193904 | 65 | 177 | 0.0 | 2.0 | 0.00 | 0.00 | 0.00 | 46 | 1014.9 |
| 20260506193803 | 65 | 178 | 0.0 | 2.0 | 0.00 | 0.00 | 0.00 | 46 | 1014.8 |
| 20260506193704 | 65 | 182 | 0.0 | 2.0 | 0.00 | 0.00 | 0.00 | 46 | 1014.9 |
| 20260506193603 | 65 | 182 | 0.0 | 2.0 | 0.00 | 0.00 | 0.00 | 46 | 1014.9 |
| 20260506193504 | 65 | 183 | 0.0 | 2.0 | 0.00 | 0.00 | 0.00 | 46 | 1014.8 |
| 20260506193404 | 65 | 181 | 0.0 | 2.0 | 0.00 | 0.00 | 0.00 | 46 | 1014.8 |
| 20260506193304 | 65 | 178 | 0.0 | 2.0 | 0.00 | 0.00 | 0.00 | 46 | 1014.7 |
| 20260506193203 | 65 | 178 | 0.0 | 2.0 | 0.00 | 0.00 | 0.00 | 45 | 1014.7 |
| 20260506193104 | 65 | 180 | 0.0 | 2.0 | 0.00 | 0.00 | 0.00 | 45 | 1014.7 |
| 20260506193004 | 65 | 176 | 0.0 | 2.0 | 0.00 | 0.00 | 0.00 | 45 | 1014.9 |
| 20260506192904 | 65 | 177 | 0.0 | 2.0 | 0.00 | 0.00 | 0.00 | 45 | 1014.8 |
| 20260506192803 | 65 | 178 | 0.0 | 2.0 | 0.00 | 0.00 | 0.00 | 45 | 1014.8 |
| 20260506192704 | 66 | 175 | 0.0 | 2.0 | 0.00 | 0.00 | 0.00 | 45 | 1014.8 |
| 20260506192625 | 66 | 176 | 0.0 | 2.0 | 0.00 | 0.00 | 0.00 | 45 | 1014.8 |
| 20260506192504 | 66 | 177 | 0.0 | 2.0 | 0.00 | 0.00 | 0.00 | 45 | 1014.7 |
| 20260506192404 | 66 | 175 | 0.0 | 2.0 | 0.00 | 0.00 | 0.00 | 45 | 1014.6 |
| 20260506192305 | 66 | 177 | 0.0 | 2.0 | 0.00 | 0.00 | 0.00 | 45 | 1014.8 |
| 20260506192203 | 66 | 177 | 0.0 | 2.0 | 0.00 | 0.00 | 0.00 | 45 | 1014.7 |
| 20260506192104 | 66 | 177 | 0.0 | 2.0 | 0.00 | 0.00 | 0.00 | 44 | 1014.7 |
| 20260506192024 | 66 | 178 | 0.0 | 2.0 | 0.00 | 0.00 | 0.00 | 44 | 1014.8 |
| 20260506191904 | 66 | 178 | 0.0 | 2.0 | 0.00 | 0.00 | 0.00 | 44 | 1014.7 |
| 20260506191803 | 66 | 177 | 0.0 | 2.0 | 0.00 | 0.00 | 0.00 | 44 | 1014.9 |
| 20260506191703 | 66 | 179 | 0.0 | 2.0 | 0.00 | 0.00 | 0.00 | 44 | 1014.8 |
| 20260506191603 | 66 | 178 | 0.0 | 2.0 | 0.00 | 0.00 | 0.00 | 44 | 1014.4 |
| 20260506191503 | 66 | 178 | 0.0 | 2.0 | 0.00 | 0.00 | 0.00 | 44 | 1014.8 |
| 20260506191403 | 66 | 182 | 0.0 | 2.0 | 0.00 | 0.00 | 0.00 | 44 | 1014.9 |
| 20260506191303 | 66 | 186 | 0.0 | 2.0 | 0.00 | 0.00 | 0.00 | 44 | 1014.7 |
| 20260506191203 | 66 | 185 | 0.0 | 2.0 | 0.00 | 0.00 | 0.00 | 44 | 1014.8 |
| 20260506191103 | 66 | 185 | 0.0 | 2.0 | 0.00 | 0.00 | 0.00 | 44 | 1014.4 |
| 20260506191003 | 66 | 185 | 0.0 | 2.0 | 0.00 | 0.00 | 0.00 | 44 | 1014.6 |
| 20260506190903 | 66 | 185 | 0.0 | 2.0 | 0.00 | 0.00 | 0.00 | 44 | 1014.6 |
| 20260506190824 | 66 | 185 | 0.0 | 2.0 | 0.00 | 0.00 | 0.00 | 43 | 1014.8 |
| 20260506190703 | 66 | 170 | 0.0 | 1.0 | 0.00 | 0.00 | 0.00 | 44 | 1014.8 |
| 20260506190603 | 66 | 0 | 0.0 | 0.0 | 0.00 | 0.00 | 0.00 | 43 | 1014.4 |
| 20260506190503 | 66 | 0 | 0.0 | 0.0 | 0.00 | 0.00 | 0.00 | 43 | 1014.7 |
| 20260506190403 | 66 | 0 | 0.0 | 0.0 | 0.00 | 0.00 | 0.00 | 43 | 1014.7 |
| 20260506190303 | 67 | 0 | 0.0 | 0.0 | 0.00 | 0.00 | 0.00 | 43 | 1014.4 |
| 20260506190203 | 67 | 0 | 0.0 | 0.0 | 0.00 | 0.00 | 0.00 | 43 | 1014.7 |
| 20260506190103 | 67 | 0 | 0.0 | 0.0 | 0.00 | 0.00 | 0.00 | 43 | 1014.7 |
| 20260506190004 | 67 | 0 | 0.0 | 0.0 | 0.00 | 0.00 | 0.00 | 43 | 1014.7 |
| 20260506185904 | 67 | 0 | 0.0 | 0.0 | 0.00 | 0.00 | 0.00 | 43 | 1014.3 |
| 20260506185803 | 67 | 0 | 0.0 | 0.0 | 0.00 | 0.00 | 0.00 | 43 | 1014.7 |
| 20260506185704 | 67 | 0 | 0.0 | 0.0 | 0.00 | 0.00 | 0.00 | 42 | 1014.7 |
| 20260506185603 | 67 | 175 | 0.0 | 2.0 | 0.00 | 0.00 | 0.00 | 42 | 1014.4 |
| 20260506185504 | 67 | 189 | 0.0 | 2.0 | 0.00 | 0.00 | 0.00 | 43 | 1014.4 |
| 20260506185404 | 67 | 188 | 0.0 | 2.0 | 0.00 | 0.00 | 0.00 | 42 | 1014.6 |
| 20260506185325 | 67 | 180 | 0.0 | 2.0 | 0.00 | 0.00 | 0.00 | 42 | 1014.6 |
| 20260506185203 | 67 | 182 | 0.0 | 3.0 | 0.00 | 0.00 | 0.00 | 41 | 1014.7 |
| 20260506185124 | 67 | 182 | 0.0 | 3.0 | 0.00 | 0.00 | 0.00 | 41 | 1014.8 |
| 20260506185003 | 67 | 182 | 0.0 | 3.0 | 0.00 | 0.00 | 0.00 | 41 | 1014.7 |
| 20260506184924 | 67 | 182 | 0.0 | 3.0 | 0.00 | 0.00 | 0.00 | 41 | 1014.4 |
| 20260506184803 | 67 | 182 | 0.0 | 3.0 | 0.00 | 0.00 | 0.00 | 41 | 1014.4 |
| 20260506184724 | 67 | 182 | 0.0 | 3.0 | 0.00 | 0.00 | 0.00 | 41 | 1014.4 |
| 20260506184603 | 67 | 182 | 0.0 | 3.0 | 0.00 | 0.00 | 0.00 | 41 | 1014.3 |
| 20260506184504 | 67 | 176 | 0.0 | 3.0 | 0.00 | 0.00 | 0.00 | 41 | 1014.4 |
| 20260506184424 | 67 | 176 | 0.0 | 3.0 | 0.00 | 0.00 | 0.00 | 41 | 1014.4 |
| 20260506184304 | 67 | 180 | 0.0 | 3.0 | 0.00 | 0.00 | 0.00 | 41 | 1014.4 |
| 20260506184204 | 67 | 176 | 0.0 | 2.0 | 0.00 | 0.00 | 0.00 | 40 | 1014.6 |
| 20260506184103 | 67 | 174 | 0.0 | 2.0 | 0.00 | 0.00 | 0.00 | 40 | 1014.3 |
| 20260506184003 | 68 | 175 | 0.0 | 2.0 | 0.00 | 0.00 | 0.00 | 40 | 1014.4 |
| 20260506183903 | 68 | 175 | 0.0 | 2.0 | 0.00 | 0.00 | 0.00 | 40 | 1014.2 |
| 20260506183803 | 68 | 175 | 0.0 | 2.0 | 0.00 | 0.00 | 0.00 | 40 | 1014.3 |
| 20260506183704 | 68 | 175 | 0.0 | 2.0 | 0.00 | 0.00 | 0.00 | 40 | 1014.0 |
| 20260506183604 | 68 | 174 | 0.0 | 1.0 | 0.00 | 0.00 | 0.00 | 40 | 1014.6 |
| 20260506183503 | 68 | 175 | 0.0 | 1.0 | 0.00 | 0.00 | 0.00 | 40 | 1014.3 |
| 20260506183403 | 68 | 175 | 0.0 | 1.0 | 0.00 | 0.00 | 0.00 | 40 | 1014.3 |
| 20260506183303 | 68 | 178 | 0.0 | 1.0 | 0.00 | 0.00 | 0.00 | 40 | 1014.4 |
| 20260506183224 | 68 | 178 | 0.0 | 1.0 | 0.00 | 0.00 | 0.00 | 40 | 1014.1 |
| 20260506183103 | 68 | 162 | 0.0 | 1.0 | 0.00 | 0.00 | 0.00 | 40 | 1014.2 |
| 20260506183004 | 68 | 162 | 0.0 | 1.0 | 0.00 | 0.00 | 0.00 | 40 | 1014.0 |
| 20260506182903 | 68 | 162 | 0.0 | 1.0 | 0.00 | 0.00 | 0.00 | 40 | 1014.1 |
| 20260506182825 | 68 | 162 | 0.0 | 1.0 | 0.00 | 0.00 | 0.00 | 40 | 1014.3 |
| 20260506182724 | 68 | 162 | 0.0 | 1.0 | 0.00 | 0.00 | 0.00 | 40 | 1014.2 |
| 20260506182603 | 68 | 162 | 0.0 | 1.0 | 0.00 | 0.00 | 0.00 | 39 | 1014.3 |
| 20260506182504 | 68 | 154 | 0.0 | 1.0 | 0.00 | 0.00 | 0.00 | 39 | 1014.3 |
| 20260506182403 | 68 | 154 | 0.0 | 1.0 | 0.00 | 0.00 | 0.00 | 39 | 1014.3 |
| 20260506182306 | 68 | 154 | 0.0 | 1.0 | 0.00 | 0.00 | 0.00 | 39 | 1014.0 |
| 20260506182204 | 68 | 154 | 0.0 | 1.0 | 0.00 | 0.00 | 0.00 | 39 | 1014.2 |
| 20260506182103 | 68 | 0 | 0.0 | 0.0 | 0.00 | 0.00 | 0.00 | 39 | 1014.3 |
| 20260506182003 | 68 | 0 | 0.0 | 0.0 | 0.00 | 0.00 | 0.00 | 39 | 1014.2 |
| 20260506181903 | 68 | 0 | 0.0 | 0.0 | 0.00 | 0.00 | 0.00 | 39 | 1014.1 |
| 20260506181824 | 69 | 0 | 0.0 | 0.0 | 0.00 | 0.00 | 0.00 | 38 | 1014.1 |
| 20260506181724 | 69 | 174 | 0.0 | 2.0 | 0.00 | 0.00 | 0.00 | 39 | 1014.2 |
| 20260506181603 | 69 | 174 | 0.0 | 2.0 | 0.00 | 0.00 | 0.00 | 38 | 1014.3 |
| 20260506181504 | 69 | 174 | 0.0 | 2.0 | 0.00 | 0.00 | 0.00 | 38 | 1014.2 |
| 20260506181403 | 69 | 174 | 0.0 | 2.0 | 0.00 | 0.00 | 0.00 | 38 | 1014.4 |
| 20260506181304 | 69 | 174 | 0.0 | 2.0 | 0.00 | 0.00 | 0.00 | 38 | 1014.1 |
| 20260506181203 | 69 | 174 | 0.0 | 2.0 | 0.00 | 0.00 | 0.00 | 38 | 1014.1 |
| 20260506181104 | 69 | 174 | 0.0 | 2.0 | 0.00 | 0.00 | 0.00 | 38 | 1014.1 |
| 20260506181003 | 69 | 174 | 0.0 | 2.0 | 0.00 | 0.00 | 0.00 | 38 | 1014.2 |
| 20260506180903 | 69 | 174 | 0.0 | 2.0 | 0.00 | 0.00 | 0.00 | 38 | 1014.2 |
| 20260506180803 | 69 | 174 | 0.0 | 2.0 | 0.00 | 0.00 | 0.00 | 38 | 1014.1 |
| 20260506180705 | 69 | 192 | 0.0 | 2.0 | 0.00 | 0.00 | 0.00 | 38 | 1014.0 |
| 20260506180624 | 69 | 192 | 0.0 | 2.0 | 0.00 | 0.00 | 0.00 | 38 | 1014.0 |
| 20260506180503 | 69 | 192 | 0.0 | 2.0 | 0.00 | 0.00 | 0.00 | 38 | 1014.2 |
| 20260506180424 | 69 | 192 | 0.0 | 2.0 | 0.00 | 0.00 | 0.00 | 38 | 1014.2 |
| 20260506180304 | 69 | 189 | 0.0 | 2.0 | 0.00 | 0.00 | 0.00 | 38 | 1013.9 |
| 20260506180203 | 69 | 189 | 0.0 | 2.0 | 0.00 | 0.00 | 0.00 | 38 | 1014.0 |
| 20260506180103 | 69 | 189 | 0.0 | 2.0 | 0.00 | 0.00 | 0.00 | 37 | 1014.0 |
| 20260506180004 | 70 | 189 | 0.0 | 2.0 | 0.00 | 0.00 | 0.00 | 37 | 1014.0 |
| 20260506175903 | 70 | 189 | 0.0 | 2.0 | 0.00 | 0.00 | 0.00 | 37 | 1014.2 |
| 20260506175824 | 70 | 189 | 0.0 | 2.0 | 0.00 | 0.00 | 0.00 | 37 | 1014.2 |
| 20260506175703 | 70 | 178 | 0.0 | 1.0 | 0.00 | 0.00 | 0.00 | 37 | 1013.8 |
| 20260506175603 | 70 | 178 | 0.0 | 1.0 | 0.00 | 0.00 | 0.00 | 37 | 1013.8 |
| 20260506175503 | 70 | 178 | 0.0 | 1.0 | 0.00 | 0.00 | 0.00 | 37 | 1013.9 |
| 20260506175403 | 70 | 180 | 0.0 | 4.0 | 0.00 | 0.00 | 0.00 | 37 | 1013.8 |
| 20260506175306 | 70 | 181 | 0.0 | 4.0 | 0.00 | 0.00 | 0.00 | 36 | 1013.8 |
| 20260506175203 | 70 | 178 | 0.0 | 4.0 | 0.00 | 0.00 | 0.00 | 37 | 1013.8 |
| 20260506175104 | 70 | 178 | 0.0 | 4.0 | 0.00 | 0.00 | 0.00 | 37 | 1014.0 |
| 20260506175024 | 70 | 178 | 0.0 | 4.0 | 0.00 | 0.00 | 0.00 | 37 | 1013.7 |
| 20260506174903 | 70 | 178 | 0.0 | 4.0 | 0.00 | 0.00 | 0.00 | 36 | 1013.8 |
| 20260506174803 | 70 | 179 | 0.0 | 4.0 | 0.00 | 0.00 | 0.00 | 37 | 1013.7 |
| 20260506174725 | 70 | 179 | 0.0 | 4.0 | 0.00 | 0.00 | 0.00 | 37 | 1013.9 |
| 20260506174603 | 70 | 179 | 0.0 | 4.0 | 0.00 | 0.00 | 0.00 | 37 | 1013.7 |
| 20260506174503 | 70 | 179 | 0.0 | 4.0 | 0.00 | 0.00 | 0.00 | 36 | 1013.8 |
| 20260506174424 | 70 | 174 | 0.0 | 1.0 | 0.00 | 0.00 | 0.00 | 37 | 1013.6 |
| 20260506174303 | 70 | 174 | 0.0 | 1.0 | 0.00 | 0.00 | 0.00 | 37 | 1013.8 |
| 20260506174224 | 70 | 174 | 0.0 | 1.0 | 0.00 | 0.00 | 0.00 | 37 | 1014.0 |
| 20260506174103 | 70 | 191 | 0.0 | 1.0 | 0.00 | 0.00 | 0.00 | 38 | 1013.6 |
| 20260506174003 | 69 | 191 | 0.0 | 1.0 | 0.00 | 0.00 | 0.00 | 38 | 1013.8 |
| 20260506173903 | 69 | 191 | 0.0 | 1.0 | 0.00 | 0.00 | 0.00 | 38 | 1013.8 |
| 20260506173803 | 69 | 0 | 0.0 | 0.0 | 0.00 | 0.00 | 0.00 | 38 | 1013.9 |
| 20260506173703 | 69 | 0 | 0.0 | 0.0 | 0.00 | 0.00 | 0.00 | 38 | 1013.5 |
| 20260506173603 | 69 | 0 | 0.0 | 0.0 | 0.00 | 0.00 | 0.00 | 38 | 1013.8 |
| 20260506173524 | 69 | 0 | 0.0 | 0.0 | 0.00 | 0.00 | 0.00 | 39 | 1013.6 |
| 20260506173403 | 69 | 0 | 0.0 | 0.0 | 0.00 | 0.00 | 0.00 | 39 | 1013.6 |
| 20260506173303 | 69 | 0 | 0.0 | 0.0 | 0.00 | 0.00 | 0.00 | 39 | 1013.8 |
| 20260506173203 | 69 | 0 | 0.0 | 0.0 | 0.00 | 0.00 | 0.00 | 39 | 1013.6 |
| 20260506173103 | 70 | 0 | 0.0 | 0.0 | 0.00 | 0.00 | 0.00 | 39 | 1013.7 |
| 20260506173004 | 70 | 0 | 0.0 | 0.0 | 0.00 | 0.00 | 0.00 | 39 | 1013.6 |
| 20260506172903 | 70 | 0 | 0.0 | 0.0 | 0.00 | 0.00 | 0.00 | 39 | 1013.6 |
| 20260506172803 | 70 | 0 | 0.0 | 0.0 | 0.00 | 0.00 | 0.00 | 39 | 1013.8 |
| 20260506172703 | 70 | 0 | 0.0 | 0.0 | 0.00 | 0.00 | 0.00 | 39 | 1013.5 |
| 20260506172603 | 70 | 0 | 0.0 | 0.0 | 0.00 | 0.00 | 0.00 | 39 | 1013.5 |
| 20260506172503 | 70 | 0 | 0.0 | 0.0 | 0.00 | 0.00 | 0.00 | 39 | 1013.5 |
| 20260506172403 | 70 | 0 | 0.0 | 0.0 | 0.00 | 0.00 | 0.00 | 39 | 1013.4 |
| 20260506172306 | 71 | 0 | 0.0 | 0.0 | 0.00 | 0.00 | 0.00 | 39 | 1013.5 |
| 20260506172203 | 71 | 0 | 0.0 | 0.0 | 0.00 | 0.00 | 0.00 | 39 | 1013.7 |
| 20260506172103 | 71 | 0 | 0.0 | 0.0 | 0.00 | 0.00 | 0.00 | 38 | 1013.5 |
| 20260506172004 | 71 | 0 | 0.0 | 0.0 | 0.00 | 0.00 | 0.00 | 38 | 1013.6 |
| 20260506171903 | 71 | 0 | 0.0 | 0.0 | 0.00 | 0.00 | 0.00 | 38 | 1013.8 |
| 20260506171824 | 71 | 0 | 0.0 | 0.0 | 0.00 | 0.00 | 0.00 | 38 | 1013.5 |
| 20260506171703 | 71 | 0 | 0.0 | 0.0 | 0.00 | 0.00 | 0.00 | 38 | 1013.6 |
| 20260506171603 | 72 | 0 | 0.0 | 0.0 | 0.00 | 0.00 | 0.00 | 37 | 1013.5 |
| 20260506171524 | 72 | 0 | 0.0 | 0.0 | 0.00 | 0.00 | 0.00 | 37 | 1013.5 |
| 20260506171403 | 72 | 0 | 0.0 | 0.0 | 0.00 | 0.00 | 0.00 | 37 | 1013.5 |
| 20260506171303 | 72 | 0 | 0.0 | 0.0 | 0.00 | 0.00 | 0.00 | 36 | 1013.6 |
| 20260506171203 | 72 | 0 | 0.0 | 0.0 | 0.00 | 0.00 | 0.00 | 36 | 1013.5 |
| 20260506171104 | 72 | 0 | 0.0 | 0.0 | 0.00 | 0.00 | 0.00 | 35 | 1013.6 |
| 20260506171003 | 73 | 0 | 0.0 | 0.0 | 0.00 | 0.00 | 0.00 | 35 | 1013.5 |
| 20260506170903 | 73 | 0 | 0.0 | 0.0 | 0.00 | 0.00 | 0.00 | 35 | 1013.5 |
| 20260506170803 | 73 | 0 | 0.0 | 0.0 | 0.00 | 0.00 | 0.00 | 35 | 1013.4 |
| 20260506170703 | 73 | 0 | 0.0 | 0.0 | 0.00 | 0.00 | 0.00 | 35 | 1013.8 |
| 20260506170603 | 73 | 0 | 0.0 | 0.0 | 0.00 | 0.00 | 0.00 | 35 | 1013.6 |
| 20260506170503 | 73 | 0 | 0.0 | 0.0 | 0.00 | 0.00 | 0.00 | 34 | 1013.5 |
| 20260506170424 | 73 | 0 | 0.0 | 0.0 | 0.00 | 0.00 | 0.00 | 34 | 1013.6 |
| 20260506170303 | 73 | 0 | 0.0 | 0.0 | 0.00 | 0.00 | 0.00 | 34 | 1013.5 |
| 20260506170203 | 74 | 0 | 0.0 | 0.0 | 0.00 | 0.00 | 0.00 | 34 | 1013.6 |
| 20260506170103 | 74 | 0 | 0.0 | 0.0 | 0.00 | 0.00 | 0.00 | 34 | 1013.4 |
| 20260506170003 | 74 | 0 | 0.0 | 0.0 | 0.00 | 0.00 | 0.00 | 34 | 1013.4 |
| 20260506165903 | 74 | 0 | 0.0 | 0.0 | 0.00 | 0.00 | 0.00 | 33 | 1013.6 |
| 20260506165803 | 74 | 164 | 0.0 | 1.0 | 0.00 | 0.00 | 0.00 | 33 | 1013.5 |
| 20260506165703 | 74 | 164 | 0.0 | 1.0 | 0.00 | 0.00 | 0.00 | 33 | 1013.6 |
| 20260506165603 | 74 | 164 | 0.0 | 1.0 | 0.00 | 0.00 | 0.00 | 33 | 1013.6 |
| 20260506165503 | 74 | 164 | 0.0 | 1.0 | 0.00 | 0.00 | 0.00 | 33 | 1013.6 |
| 20260506165403 | 75 | 164 | 0.0 | 1.0 | 0.00 | 0.00 | 0.00 | 32 | 1013.6 |
| 20260506165305 | 75 | 164 | 0.0 | 1.0 | 0.00 | 0.00 | 0.00 | 32 | 1013.5 |
| 20260506165203 | 75 | 175 | 0.0 | 1.0 | 0.00 | 0.00 | 0.00 | 32 | 1013.4 |
| 20260506165124 | 75 | 175 | 0.0 | 1.0 | 0.00 | 0.00 | 0.00 | 32 | 1013.2 |
| 20260506165005 | 75 | 175 | 0.0 | 1.0 | 0.00 | 0.00 | 0.00 | 32 | 1013.4 |
| 20260506164903 | 75 | 175 | 0.0 | 1.0 | 0.00 | 0.00 | 0.00 | 31 | 1013.6 |
| 20260506164804 | 75 | 181 | 0.0 | 1.0 | 0.00 | 0.00 | 0.00 | 32 | 1013.4 |
| 20260506164703 | 75 | 181 | 0.0 | 1.0 | 0.00 | 0.00 | 0.00 | 32 | 1013.6 |
| 20260506164603 | 76 | 181 | 0.0 | 1.0 | 0.00 | 0.00 | 0.00 | 31 | 1013.5 |
| 20260506164524 | 76 | 181 | 0.0 | 1.0 | 0.00 | 0.00 | 0.00 | 31 | 1013.6 |
| 20260506164424 | 76 | 176 | 0.0 | 1.0 | 0.00 | 0.00 | 0.00 | 31 | 1013.4 |
| 20260506164303 | 76 | 170 | 0.0 | 1.0 | 0.00 | 0.00 | 0.00 | 31 | 1013.3 |
| 20260506164203 | 76 | 180 | 0.0 | 1.0 | 0.00 | 0.00 | 0.00 | 30 | 1013.4 |
| 20260506164103 | 76 | 180 | 0.0 | 1.0 | 0.00 | 0.00 | 0.00 | 30 | 1013.4 |
| 20260506164003 | 76 | 180 | 0.0 | 1.0 | 0.00 | 0.00 | 0.00 | 30 | 1013.3 |
| 20260506163903 | 76 | 180 | 0.0 | 1.0 | 0.00 | 0.00 | 0.00 | 30 | 1013.5 |
| 20260506163804 | 76 | 180 | 0.0 | 1.0 | 0.00 | 0.00 | 0.00 | 30 | 1013.5 |
| 20260506163703 | 76 | 180 | 0.0 | 1.0 | 0.00 | 0.00 | 0.00 | 30 | 1013.7 |
| 20260506163603 | 76 | 180 | 0.0 | 1.0 | 0.00 | 0.00 | 0.00 | 30 | 1013.5 |
| 20260506163524 | 76 | 180 | 0.0 | 1.0 | 0.00 | 0.00 | 0.00 | 31 | 1013.5 |
| 20260506163424 | 76 | 183 | 0.0 | 1.0 | 0.00 | 0.00 | 0.00 | 30 | 1013.4 |
| 20260506163324 | 77 | 192 | 0.0 | 2.0 | 0.00 | 0.00 | 0.00 | 30 | 1013.5 |
| 20260506163203 | 77 | 172 | 0.0 | 2.0 | 0.00 | 0.00 | 0.00 | 30 | 1013.4 |
| 20260506163103 | 77 | 172 | 0.0 | 2.0 | 0.00 | 0.00 | 0.00 | 30 | 1013.3 |
| 20260506163024 | 77 | 172 | 0.0 | 2.0 | 0.00 | 0.00 | 0.00 | 30 | 1013.2 |
| 20260506162924 | 77 | 168 | 0.0 | 2.0 | 0.00 | 0.00 | 0.00 | 29 | 1013.3 |
| 20260506162803 | 77 | 170 | 0.0 | 2.0 | 0.00 | 0.00 | 0.00 | 29 | 1013.4 |
| 20260506162724 | 77 | 168 | 0.0 | 2.0 | 0.00 | 0.00 | 0.00 | 29 | 1013.4 |
| 20260506162603 | 77 | 170 | 0.0 | 2.0 | 0.00 | 0.00 | 0.00 | 30 | 1013.4 |
| 20260506162504 | 77 | 170 | 0.0 | 2.0 | 0.00 | 0.00 | 0.00 | 29 | 1013.3 |
| 20260506162403 | 77 | 170 | 0.0 | 2.0 | 0.00 | 0.00 | 0.00 | 29 | 1013.4 |
| 20260506162306 | 78 | 175 | 0.0 | 2.0 | 0.00 | 0.00 | 0.00 | 29 | 1013.5 |
| 20260506162203 | 78 | 174 | 0.0 | 2.0 | 0.00 | 0.00 | 0.00 | 28 | 1013.4 |
| 20260506162124 | 78 | 173 | 0.0 | 3.0 | 0.00 | 0.00 | 0.00 | 29 | 1013.3 |
| 20260506162003 | 78 | 173 | 0.0 | 3.0 | 0.00 | 0.00 | 0.00 | 28 | 1013.5 |
| 20260506161903 | 78 | 174 | 0.0 | 3.0 | 0.00 | 0.00 | 0.00 | 28 | 1013.3 |
| 20260506161803 | 78 | 173 | 0.0 | 3.0 | 0.00 | 0.00 | 0.00 | 28 | 1013.2 |
| 20260506161724 | 78 | 175 | 0.0 | 3.0 | 0.00 | 0.00 | 0.00 | 28 | 1013.3 |
| 20260506161603 | 78 | 174 | 0.0 | 3.0 | 0.00 | 0.00 | 0.00 | 28 | 1013.7 |
| 20260506161503 | 78 | 173 | 0.0 | 3.0 | 0.00 | 0.00 | 0.00 | 28 | 1013.4 |
| 20260506161403 | 78 | 173 | 0.0 | 3.0 | 0.00 | 0.00 | 0.00 | 27 | 1013.4 |
| 20260506161303 | 78 | 169 | 0.0 | 3.0 | 0.00 | 0.00 | 0.00 | 28 | 1013.3 |
| 20260506161203 | 78 | 170 | 0.0 | 3.0 | 0.00 | 0.00 | 0.00 | 27 | 1013.5 |
| 20260506161103 | 78 | 173 | 0.0 | 1.0 | 0.00 | 0.00 | 0.00 | 27 | 1013.2 |
| 20260506161003 | 78 | 204 | 0.0 | 2.0 | 0.00 | 0.00 | 0.00 | 28 | 1013.3 |
| 20260506160903 | 78 | 204 | 0.0 | 2.0 | 0.00 | 0.00 | 0.00 | 27 | 1013.5 |
| 20260506160803 | 78 | 207 | 0.0 | 2.0 | 0.00 | 0.00 | 0.00 | 27 | 1013.4 |
| 20260506160703 | 78 | 207 | 0.0 | 2.0 | 0.00 | 0.00 | 0.00 | 27 | 1013.3 |
| 20260506160603 | 78 | 222 | 0.0 | 2.0 | 0.00 | 0.00 | 0.00 | 27 | 1013.5 |
| 20260506160525 | 78 | 222 | 0.0 | 2.0 | 0.00 | 0.00 | 0.00 | 27 | 1013.4 |
| 20260506160403 | 79 | 226 | 0.0 | 2.0 | 0.00 | 0.00 | 0.00 | 27 | 1013.4 |
| 20260506160303 | 79 | 228 | 0.0 | 2.0 | 0.00 | 0.00 | 0.00 | 27 | 1013.3 |
| 20260506160203 | 79 | 224 | 0.0 | 3.0 | 0.00 | 0.00 | 0.00 | 26 | 1013.5 |
| 20260506160103 | 79 | 217 | 0.0 | 3.0 | 0.00 | 0.00 | 0.00 | 26 | 1013.5 |
| 20260506160004 | 79 | 210 | 0.0 | 3.0 | 0.00 | 0.00 | 0.00 | 26 | 1013.4 |
| 20260506155924 | 79 | 210 | 0.0 | 3.0 | 0.00 | 0.00 | 0.00 | 26 | 1013.3 |
| 20260506155803 | 79 | 203 | 0.0 | 3.0 | 0.00 | 0.00 | 0.00 | 26 | 1013.5 |
| 20260506155703 | 79 | 195 | 0.0 | 3.0 | 0.00 | 0.00 | 0.00 | 26 | 1013.4 |
| 20260506155603 | 79 | 195 | 0.0 | 3.0 | 0.00 | 0.00 | 0.00 | 26 | 1013.5 |
| 20260506155503 | 79 | 194 | 0.0 | 3.0 | 0.00 | 0.00 | 0.00 | 26 | 1013.4 |
| 20260506155403 | 79 | 191 | 0.0 | 3.0 | 0.00 | 0.00 | 0.00 | 27 | 1013.4 |
| 20260506155306 | 79 | 191 | 0.0 | 3.0 | 0.00 | 0.00 | 0.00 | 26 | 1013.3 |
| 20260506155203 | 79 | 194 | 0.0 | 6.0 | 0.00 | 0.00 | 0.00 | 26 | 1013.3 |
| 20260506155124 | 79 | 195 | 0.0 | 6.0 | 0.00 | 0.00 | 0.00 | 26 | 1013.2 |
| 20260506155003 | 79 | 187 | 1.0 | 6.0 | 0.00 | 0.00 | 0.00 | 26 | 1013.6 |
| 20260506154903 | 79 | 184 | 1.0 | 6.0 | 0.00 | 0.00 | 0.00 | 26 | 1013.3 |
| 20260506154825 | 79 | 185 | 1.0 | 6.0 | 0.00 | 0.00 | 0.00 | 26 | 1013.3 |
| 20260506154703 | 80 | 184 | 1.0 | 6.0 | 0.00 | 0.00 | 0.00 | 26 | 1013.2 |
| 20260506154603 | 80 | 184 | 1.0 | 6.0 | 0.00 | 0.00 | 0.00 | 26 | 1013.4 |
| 20260506154503 | 80 | 184 | 1.0 | 6.0 | 0.00 | 0.00 | 0.00 | 26 | 1013.3 |
| 20260506154403 | 80 | 183 | 1.0 | 6.0 | 0.00 | 0.00 | 0.00 | 26 | 1013.4 |
| 20260506154303 | 80 | 184 | 1.0 | 6.0 | 0.00 | 0.00 | 0.00 | 25 | 1013.4 |
| 20260506154203 | 80 | 175 | 0.0 | 4.0 | 0.00 | 0.00 | 0.00 | 26 | 1013.2 |
| 20260506154103 | 80 | 171 | 0.0 | 4.0 | 0.00 | 0.00 | 0.00 | 26 | 1013.3 |
| 20260506154003 | 80 | 171 | 0.0 | 4.0 | 0.00 | 0.00 | 0.00 | 26 | 1013.3 |
| 20260506153903 | 80 | 177 | 0.0 | 3.0 | 0.00 | 0.00 | 0.00 | 25 | 1013.3 |
| 20260506153803 | 80 | 182 | 0.0 | 3.0 | 0.00 | 0.00 | 0.00 | 26 | 1013.4 |
| 20260506153703 | 80 | 184 | 0.0 | 2.0 | 0.00 | 0.00 | 0.00 | 26 | 1013.4 |
| 20260506153624 | 80 | 184 | 0.0 | 2.0 | 0.00 | 0.00 | 0.00 | 25 | 1013.2 |
| 20260506153503 | 80 | 184 | 0.0 | 2.0 | 0.00 | 0.00 | 0.00 | 25 | 1013.2 |
| 20260506153424 | 80 | 184 | 0.0 | 2.0 | 0.00 | 0.00 | 0.00 | 25 | 1013.4 |
| 20260506153324 | 80 | 184 | 0.0 | 2.0 | 0.00 | 0.00 | 0.00 | 25 | 1013.2 |
| 20260506153203 | 80 | 231 | 0.0 | 3.0 | 0.00 | 0.00 | 0.00 | 24 | 1013.3 |
| 20260506153103 | 80 | 226 | 0.0 | 4.0 | 0.00 | 0.00 | 0.00 | 25 | 1013.4 |
| 20260506153004 | 80 | 222 | 0.0 | 4.0 | 0.00 | 0.00 | 0.00 | 25 | 1013.4 |
| 20260506152903 | 80 | 212 | 0.0 | 6.0 | 0.00 | 0.00 | 0.00 | 25 | 1013.3 |
| 20260506152824 | 80 | 210 | 0.0 | 6.0 | 0.00 | 0.00 | 0.00 | 25 | 1013.2 |
| 20260506152704 | 80 | 210 | 0.0 | 6.0 | 0.00 | 0.00 | 0.00 | 25 | 1013.3 |
| 20260506152603 | 80 | 210 | 0.0 | 6.0 | 0.00 | 0.00 | 0.00 | 25 | 1013.5 |
| 20260506152503 | 80 | 206 | 0.0 | 6.0 | 0.00 | 0.00 | 0.00 | 25 | 1013.3 |
| 20260506152404 | 80 | 206 | 1.0 | 6.0 | 0.00 | 0.00 | 0.00 | 25 | 1013.4 |
| 20260506152305 | 80 | 204 | 1.0 | 6.0 | 0.00 | 0.00 | 0.00 | 25 | 1013.7 |
| 20260506152204 | 80 | 201 | 1.0 | 6.0 | 0.00 | 0.00 | 0.00 | 25 | 1013.3 |
| 20260506152103 | 80 | 196 | 1.0 | 6.0 | 0.00 | 0.00 | 0.00 | 25 | 1013.3 |
| 20260506152003 | 81 | 192 | 1.0 | 6.0 | 0.00 | 0.00 | 0.00 | 25 | 1013.5 |
| 20260506151904 | 81 | 191 | 1.0 | 6.0 | 0.00 | 0.00 | 0.00 | 25 | 1013.3 |
| 20260506151724 | 81 | 192 | 1.0 | 6.0 | 0.00 | 0.00 | 0.00 | 25 | 1013.4 |
| 20260506151603 | 81 | 192 | 1.0 | 6.0 | 0.00 | 0.00 | 0.00 | 25 | 1013.8 |
| 20260506151524 | 81 | 192 | 1.0 | 6.0 | 0.00 | 0.00 | 0.00 | 25 | 1013.5 |
| 20260506151403 | 81 | 192 | 0.0 | 6.0 | 0.00 | 0.00 | 0.00 | 24 | 1013.6 |
| 20260506151303 | 81 | 191 | 0.0 | 6.0 | 0.00 | 0.00 | 0.00 | 24 | 1013.6 |
| 20260506151203 | 81 | 197 | 1.0 | 6.0 | 0.00 | 0.00 | 0.00 | 24 | 1013.4 |
| 20260506151103 | 81 | 205 | 1.0 | 4.0 | 0.00 | 0.00 | 0.00 | 23 | 1013.5 |
| 20260506151003 | 81 | 210 | 0.0 | 4.0 | 0.00 | 0.00 | 0.00 | 23 | 1013.3 |
| 20260506150903 | 81 | 211 | 0.0 | 4.0 | 0.00 | 0.00 | 0.00 | 23 | 1013.7 |
| 20260506150803 | 82 | 209 | 0.0 | 4.0 | 0.00 | 0.00 | 0.00 | 23 | 1013.4 |
| 20260506150703 | 82 | 198 | 0.0 | 4.0 | 0.00 | 0.00 | 0.00 | 23 | 1013.5 |
| 20260506150603 | 82 | 194 | 1.0 | 4.0 | 0.00 | 0.00 | 0.00 | 23 | 1013.4 |
| 20260506150504 | 82 | 194 | 1.0 | 4.0 | 0.00 | 0.00 | 0.00 | 23 | 1013.5 |
| 20260506150424 | 82 | 194 | 1.0 | 4.0 | 0.00 | 0.00 | 0.00 | 23 | 1013.5 |
| 20260506150305 | 82 | 196 | 1.0 | 4.0 | 0.00 | 0.00 | 0.00 | 23 | 1013.4 |
| 20260506150203 | 82 | 181 | 0.0 | 4.0 | 0.00 | 0.00 | 0.00 | 22 | 1013.4 |
| 20260506150103 | 82 | 175 | 0.0 | 4.0 | 0.00 | 0.00 | 0.00 | 22 | 1013.6 |
| 20260506150004 | 82 | 176 | 0.0 | 4.0 | 0.00 | 0.00 | 0.00 | 22 | 1013.4 |
| 20260506145903 | 82 | 177 | 0.0 | 4.0 | 0.00 | 0.00 | 0.00 | 21 | 1013.6 |
| 20260506145825 | 82 | 176 | 0.0 | 4.0 | 0.00 | 0.00 | 0.00 | 22 | 1013.6 |
| 20260506145703 | 82 | 183 | 0.0 | 4.0 | 0.00 | 0.00 | 0.00 | 21 | 1013.5 |
| 20260506145603 | 82 | 186 | 0.0 | 4.0 | 0.00 | 0.00 | 0.00 | 21 | 1013.6 |
| 20260506145524 | 82 | 186 | 0.0 | 4.0 | 0.00 | 0.00 | 0.00 | 21 | 1013.6 |
| 20260506145403 | 82 | 186 | 0.0 | 4.0 | 0.00 | 0.00 | 0.00 | 21 | 1013.7 |
| 20260506145305 | 82 | 186 | 0.0 | 4.0 | 0.00 | 0.00 | 0.00 | 22 | 1013.6 |
| 20260506145203 | 82 | 192 | 0.0 | 4.0 | 0.00 | 0.00 | 0.00 | 22 | 1013.8 |
| 20260506145103 | 82 | 187 | 0.0 | 3.0 | 0.00 | 0.00 | 0.00 | 23 | 1013.4 |
| 20260506145024 | 82 | 187 | 0.0 | 3.0 | 0.00 | 0.00 | 0.00 | 22 | 1013.4 |
| 20260506144904 | 82 | 186 | 0.0 | 3.0 | 0.00 | 0.00 | 0.00 | 22 | 1013.5 |
| 20260506144824 | 82 | 188 | 0.0 | 6.0 | 0.00 | 0.00 | 0.00 | 22 | 1013.4 |
| 20260506144703 | 82 | 185 | 0.0 | 6.0 | 0.00 | 0.00 | 0.00 | 22 | 1013.6 |
| 20260506144603 | 82 | 186 | 0.0 | 6.0 | 0.00 | 0.00 | 0.00 | 21 | 1013.4 |
| 20260506144503 | 82 | 186 | 0.0 | 6.0 | 0.00 | 0.00 | 0.00 | 21 | 1013.6 |
| 20260506144403 | 82 | 181 | 0.0 | 6.0 | 0.00 | 0.00 | 0.00 | 22 | 1013.5 |
| 20260506144304 | 82 | 184 | 0.0 | 6.0 | 0.00 | 0.00 | 0.00 | 23 | 1013.4 |
| 20260506144224 | 82 | 184 | 0.0 | 6.0 | 0.00 | 0.00 | 0.00 | 23 | 1013.6 |
| 20260506144104 | 82 | 185 | 0.0 | 6.0 | 0.00 | 0.00 | 0.00 | 22 | 1013.5 |
| 20260506144003 | 82 | 187 | 0.0 | 6.0 | 0.00 | 0.00 | 0.00 | 21 | 1013.7 |
| 20260506143924 | 83 | 184 | 0.0 | 6.0 | 0.00 | 0.00 | 0.00 | 22 | 1013.7 |
| 20260506143803 | 83 | 175 | 1.0 | 4.0 | 0.00 | 0.00 | 0.00 | 22 | 1013.5 |
| 20260506143724 | 83 | 176 | 0.0 | 4.0 | 0.00 | 0.00 | 0.00 | 22 | 1013.8 |
| 20260506143604 | 83 | 175 | 1.0 | 4.0 | 0.00 | 0.00 | 0.00 | 21 | 1013.6 |
| 20260506143503 | 83 | 174 | 1.0 | 4.0 | 0.00 | 0.00 | 0.00 | 23 | 1013.7 |
| 20260506143403 | 83 | 175 | 1.0 | 4.0 | 0.00 | 0.00 | 0.00 | 22 | 1013.7 |
| 20260506143303 | 83 | 171 | 0.0 | 4.0 | 0.00 | 0.00 | 0.00 | 21 | 1013.8 |
| 20260506143203 | 83 | 171 | 0.0 | 4.0 | 0.00 | 0.00 | 0.00 | 22 | 1013.8 |
| 20260506143103 | 83 | 171 | 0.0 | 4.0 | 0.00 | 0.00 | 0.00 | 21 | 1013.7 |
| 20260506143024 | 83 | 166 | 0.0 | 4.0 | 0.00 | 0.00 | 0.00 | 23 | 1013.7 |
| 20260506142924 | 83 | 165 | 0.0 | 4.0 | 0.00 | 0.00 | 0.00 | 21 | 1013.5 |
| 20260506142803 | 83 | 176 | 0.0 | 3.0 | 0.00 | 0.00 | 0.00 | 22 | 1013.5 |
| 20260506142703 | 83 | 178 | 0.0 | 3.0 | 0.00 | 0.00 | 0.00 | 21 | 1013.8 |
| 20260506142603 | 83 | 185 | 0.0 | 2.0 | 0.00 | 0.00 | 0.00 | 20 | 1013.4 |
| 20260506142503 | 83 | 185 | 0.0 | 2.0 | 0.00 | 0.00 | 0.00 | 20 | 1013.4 |
| 20260506142403 | 83 | 181 | 0.0 | 3.0 | 0.00 | 0.00 | 0.00 | 20 | 1013.5 |
| 20260506142306 | 83 | 181 | 0.0 | 3.0 | 0.00 | 0.00 | 0.00 | 20 | 1013.5 |
| 20260506142203 | 83 | 187 | 0.0 | 3.0 | 0.00 | 0.00 | 0.00 | 20 | 1013.5 |
| 20260506142103 | 83 | 190 | 0.0 | 3.0 | 0.00 | 0.00 | 0.00 | 20 | 1013.7 |
| 20260506142003 | 83 | 191 | 0.0 | 3.0 | 0.00 | 0.00 | 0.00 | 21 | 1013.7 |
| 20260506141924 | 83 | 191 | 0.0 | 3.0 | 0.00 | 0.00 | 0.00 | 21 | 1013.7 |
| 20260506141803 | 83 | 194 | 0.0 | 3.0 | 0.00 | 0.00 | 0.00 | 21 | 1013.7 |
| 20260506141703 | 83 | 195 | 0.0 | 3.0 | 0.00 | 0.00 | 0.00 | 22 | 1013.5 |
| 20260506141624 | 83 | 196 | 0.0 | 3.0 | 0.00 | 0.00 | 0.00 | 21 | 1013.8 |
| 20260506141503 | 83 | 196 | 0.0 | 3.0 | 0.00 | 0.00 | 0.00 | 21 | 1013.4 |
| 20260506141404 | 83 | 207 | 1.0 | 4.0 | 0.00 | 0.00 | 0.00 | 22 | 1013.7 |
| 20260506141303 | 83 | 208 | 1.0 | 4.0 | 0.00 | 0.00 | 0.00 | 21 | 1013.5 |
| 20260506141203 | 83 | 207 | 0.0 | 4.0 | 0.00 | 0.00 | 0.00 | 22 | 1013.7 |
| 20260506141103 | 83 | 210 | 0.0 | 4.0 | 0.00 | 0.00 | 0.00 | 21 | 1013.7 |
| 20260506141003 | 83 | 208 | 0.0 | 4.0 | 0.00 | 0.00 | 0.00 | 21 | 1013.8 |
| 20260506140903 | 83 | 214 | 0.0 | 4.0 | 0.00 | 0.00 | 0.00 | 22 | 1013.7 |
| 20260506140803 | 83 | 214 | 0.0 | 4.0 | 0.00 | 0.00 | 0.00 | 21 | 1013.6 |
| 20260506140724 | 83 | 212 | 0.0 | 4.0 | 0.00 | 0.00 | 0.00 | 21 | 1013.6 |
| 20260506140603 | 83 | 197 | 1.0 | 4.0 | 0.00 | 0.00 | 0.00 | 21 | 1013.6 |
| 20260506140503 | 83 | 189 | 1.0 | 4.0 | 0.00 | 0.00 | 0.00 | 22 | 1013.7 |
| 20260506140403 | 83 | 182 | 1.0 | 4.0 | 0.00 | 0.00 | 0.00 | 21 | 1013.7 |
| 20260506140303 | 83 | 177 | 0.0 | 4.0 | 0.00 | 0.00 | 0.00 | 22 | 1013.7 |
| 20260506140224 | 83 | 173 | 1.0 | 4.0 | 0.00 | 0.00 | 0.00 | 22 | 1013.7 |
| 20260506140103 | 83 | 172 | 1.0 | 4.0 | 0.00 | 0.00 | 0.00 | 21 | 1013.6 |
| 20260506140004 | 83 | 169 | 1.0 | 3.0 | 0.00 | 0.00 | 0.00 | 21 | 1013.8 |
| 20260506135903 | 83 | 173 | 1.0 | 3.0 | 0.00 | 0.00 | 0.00 | 21 | 1013.7 |
| 20260506135803 | 83 | 172 | 1.0 | 3.0 | 0.00 | 0.00 | 0.00 | 21 | 1013.7 |
| 20260506135703 | 83 | 172 | 1.0 | 3.0 | 0.00 | 0.00 | 0.00 | 21 | 1013.7 |
| 20260506135624 | 83 | 174 | 1.0 | 3.0 | 0.00 | 0.00 | 0.00 | 21 | 1013.5 |
| 20260506135503 | 84 | 183 | 0.0 | 3.0 | 0.00 | 0.00 | 0.00 | 21 | 1013.5 |
| 20260506135404 | 84 | 187 | 0.0 | 3.0 | 0.00 | 0.00 | 0.00 | 21 | 1013.7 |
| 20260506135306 | 84 | 188 | 1.0 | 3.0 | 0.00 | 0.00 | 0.00 | 21 | 1013.5 |
| 20260506135203 | 83 | 193 | 1.0 | 3.0 | 0.00 | 0.00 | 0.00 | 21 | 1013.8 |
| 20260506135103 | 83 | 197 | 1.0 | 3.0 | 0.00 | 0.00 | 0.00 | 22 | 1013.7 |
| 20260506135003 | 83 | 198 | 1.0 | 3.0 | 0.00 | 0.00 | 0.00 | 22 | 1013.8 |
| 20260506134903 | 83 | 196 | 0.0 | 3.0 | 0.00 | 0.00 | 0.00 | 22 | 1013.9 |
| 20260506134824 | 83 | 197 | 0.0 | 3.0 | 0.00 | 0.00 | 0.00 | 21 | 1013.8 |
| 20260506134703 | 83 | 199 | 1.0 | 3.0 | 0.00 | 0.00 | 0.00 | 23 | 1013.8 |
| 20260506134603 | 83 | 198 | 1.0 | 4.0 | 0.00 | 0.00 | 0.00 | 22 | 1013.7 |
| 20260506134504 | 83 | 197 | 1.0 | 4.0 | 0.00 | 0.00 | 0.00 | 22 | 1013.7 |
| 20260506134403 | 83 | 196 | 1.0 | 4.0 | 0.00 | 0.00 | 0.00 | 22 | 1013.6 |
| 20260506134303 | 83 | 197 | 1.0 | 4.0 | 0.00 | 0.00 | 0.00 | 22 | 1013.8 |
| 20260506134203 | 83 | 197 | 1.0 | 4.0 | 0.00 | 0.00 | 0.00 | 21 | 1013.7 |
| 20260506134103 | 83 | 194 | 1.0 | 4.0 | 0.00 | 0.00 | 0.00 | 22 | 1013.6 |
| 20260506134003 | 83 | 192 | 1.0 | 4.0 | 0.00 | 0.00 | 0.00 | 21 | 1013.7 |
| 20260506133903 | 83 | 192 | 1.0 | 4.0 | 0.00 | 0.00 | 0.00 | 23 | 1013.8 |
| 20260506133803 | 83 | 192 | 1.0 | 4.0 | 0.00 | 0.00 | 0.00 | 22 | 1013.8 |
| 20260506133703 | 83 | 197 | 1.0 | 7.0 | 0.00 | 0.00 | 0.00 | 21 | 1013.6 |
| 20260506133603 | 84 | 197 | 1.0 | 7.0 | 0.00 | 0.00 | 0.00 | 22 | 1013.7 |
| 20260506133503 | 84 | 186 | 1.0 | 7.0 | 0.00 | 0.00 | 0.00 | 22 | 1013.6 |
| 20260506133403 | 83 | 186 | 1.0 | 7.0 | 0.00 | 0.00 | 0.00 | 22 | 1013.6 |
| 20260506133303 | 83 | 185 | 1.0 | 7.0 | 0.00 | 0.00 | 0.00 | 22 | 1013.7 |
| 20260506133203 | 83 | 185 | 1.0 | 7.0 | 0.00 | 0.00 | 0.00 | 22 | 1013.8 |
| 20260506133104 | 83 | 182 | 1.0 | 7.0 | 0.00 | 0.00 | 0.00 | 22 | 1013.9 |
| 20260506133003 | 83 | 185 | 1.0 | 7.0 | 0.00 | 0.00 | 0.00 | 22 | 1013.9 |
| 20260506132903 | 83 | 186 | 1.0 | 7.0 | 0.00 | 0.00 | 0.00 | 23 | 1013.7 |
| 20260506132803 | 83 | 186 | 1.0 | 7.0 | 0.00 | 0.00 | 0.00 | 23 | 1013.8 |
| 20260506132703 | 83 | 182 | 1.0 | 7.0 | 0.00 | 0.00 | 0.00 | 22 | 1013.9 |
| 20260506132603 | 83 | 181 | 1.0 | 7.0 | 0.00 | 0.00 | 0.00 | 23 | 1014.0 |
| 20260506132503 | 83 | 188 | 1.0 | 4.0 | 0.00 | 0.00 | 0.00 | 22 | 1013.8 |
| 20260506132403 | 83 | 187 | 1.0 | 4.0 | 0.00 | 0.00 | 0.00 | 22 | 1013.8 |
| 20260506132306 | 83 | 192 | 1.0 | 6.0 | 0.00 | 0.00 | 0.00 | 22 | 1013.7 |
| 20260506132203 | 83 | 188 | 1.0 | 7.0 | 0.00 | 0.00 | 0.00 | 22 | 1013.8 |
| 20260506132103 | 83 | 192 | 1.0 | 7.0 | 0.00 | 0.00 | 0.00 | 23 | 1013.7 |
| 20260506132003 | 83 | 196 | 1.0 | 8.0 | 0.00 | 0.00 | 0.00 | 23 | 1013.6 |
| 20260506131904 | 83 | 195 | 1.0 | 8.0 | 0.00 | 0.00 | 0.00 | 24 | 1013.8 |
| 20260506131824 | 83 | 195 | 1.0 | 8.0 | 0.00 | 0.00 | 0.00 | 22 | 1013.7 |
| 20260506131703 | 83 | 196 | 1.0 | 8.0 | 0.00 | 0.00 | 0.00 | 22 | 1013.8 |
| 20260506131603 | 83 | 196 | 1.0 | 8.0 | 0.00 | 0.00 | 0.00 | 22 | 1013.8 |
| 20260506131503 | 83 | 197 | 1.0 | 8.0 | 0.00 | 0.00 | 0.00 | 22 | 1013.7 |
| 20260506131403 | 83 | 199 | 1.0 | 8.0 | 0.00 | 0.00 | 0.00 | 22 | 1013.9 |
| 20260506131303 | 83 | 198 | 1.0 | 8.0 | 0.00 | 0.00 | 0.00 | 23 | 1013.7 |
| 20260506131203 | 84 | 202 | 1.0 | 8.0 | 0.00 | 0.00 | 0.00 | 22 | 1013.8 |
| 20260506131103 | 84 | 199 | 1.0 | 8.0 | 0.00 | 0.00 | 0.00 | 23 | 1013.8 |
| 20260506131003 | 83 | 192 | 0.0 | 6.0 | 0.00 | 0.00 | 0.00 | 22 | 1013.8 |
| 20260506130905 | 83 | 188 | 0.0 | 3.0 | 0.00 | 0.00 | 0.00 | 23 | 1013.9 |
| 20260506130824 | 83 | 188 | 0.0 | 3.0 | 0.00 | 0.00 | 0.00 | 23 | 1013.7 |
| 20260506130724 | 83 | 188 | 0.0 | 3.0 | 0.00 | 0.00 | 0.00 | 21 | 1013.8 |
| 20260506130603 | 83 | 193 | 0.0 | 6.0 | 0.00 | 0.00 | 0.00 | 22 | 1013.9 |
| 20260506130503 | 83 | 193 | 0.0 | 6.0 | 0.00 | 0.00 | 0.00 | 23 | 1013.9 |
| 20260506130403 | 84 | 194 | 0.0 | 6.0 | 0.00 | 0.00 | 0.00 | 23 | 1013.9 |
| 20260506130324 | 84 | 198 | 0.0 | 6.0 | 0.00 | 0.00 | 0.00 | 22 | 1013.9 |
| 20260506130203 | 84 | 197 | 0.0 | 6.0 | 0.00 | 0.00 | 0.00 | 23 | 1013.9 |
| 20260506130103 | 84 | 200 | 0.0 | 6.0 | 0.00 | 0.00 | 0.00 | 22 | 1014.0 |
| 20260506130004 | 83 | 193 | 1.0 | 6.0 | 0.00 | 0.00 | 0.00 | 22 | 1013.8 |
| 20260506125903 | 83 | 190 | 1.0 | 6.0 | 0.00 | 0.00 | 0.00 | 23 | 1014.0 |
| 20260506125824 | 83 | 192 | 1.0 | 8.0 | 0.00 | 0.00 | 0.00 | 22 | 1014.0 |
| 20260506125703 | 83 | 190 | 1.0 | 8.0 | 0.00 | 0.00 | 0.00 | 21 | 1013.9 |
| 20260506125603 | 83 | 190 | 1.0 | 8.0 | 0.00 | 0.00 | 0.00 | 21 | 1014.0 |
| 20260506125503 | 83 | 191 | 1.0 | 8.0 | 0.00 | 0.00 | 0.00 | 21 | 1014.0 |
| 20260506125403 | 83 | 196 | 1.0 | 8.0 | 0.00 | 0.00 | 0.00 | 21 | 1014.0 |
| 20260506125305 | 83 | 198 | 2.0 | 8.0 | 0.00 | 0.00 | 0.00 | 21 | 1014.1 |
| 20260506125224 | 83 | 198 | 2.0 | 8.0 | 0.00 | 0.00 | 0.00 | 22 | 1014.0 |
| 20260506125103 | 83 | 201 | 2.0 | 8.0 | 0.00 | 0.00 | 0.00 | 22 | 1014.1 |
| 20260506125003 | 83 | 204 | 2.0 | 8.0 | 0.00 | 0.00 | 0.00 | 21 | 1014.2 |
| 20260506124903 | 82 | 208 | 2.0 | 8.0 | 0.00 | 0.00 | 0.00 | 22 | 1014.0 |
| 20260506124803 | 82 | 212 | 1.0 | 6.0 | 0.00 | 0.00 | 0.00 | 23 | 1014.2 |
| 20260506124703 | 82 | 214 | 1.0 | 6.0 | 0.00 | 0.00 | 0.00 | 22 | 1014.2 |
| 20260506124603 | 82 | 213 | 1.0 | 6.0 | 0.00 | 0.00 | 0.00 | 22 | 1014.0 |
| 20260506124524 | 82 | 214 | 2.0 | 6.0 | 0.00 | 0.00 | 0.00 | 23 | 1014.1 |
| 20260506124403 | 83 | 210 | 1.0 | 6.0 | 0.00 | 0.00 | 0.00 | 22 | 1014.1 |
| 20260506124303 | 83 | 210 | 1.0 | 6.0 | 0.00 | 0.00 | 0.00 | 23 | 1014.2 |
| 20260506124224 | 83 | 212 | 1.0 | 6.0 | 0.00 | 0.00 | 0.00 | 23 | 1013.9 |
| 20260506124103 | 82 | 211 | 1.0 | 6.0 | 0.00 | 0.00 | 0.00 | 24 | 1014.1 |
| 20260506124004 | 82 | 210 | 1.0 | 6.0 | 0.00 | 0.00 | 0.00 | 23 | 1014.0 |
| 20260506123904 | 82 | 211 | 1.0 | 6.0 | 0.00 | 0.00 | 0.00 | 23 | 1013.9 |
| 20260506123804 | 82 | 210 | 1.0 | 6.0 | 0.00 | 0.00 | 0.00 | 23 | 1013.9 |
| 20260506123725 | 82 | 209 | 1.0 | 6.0 | 0.00 | 0.00 | 0.00 | 23 | 1014.0 |
| 20260506123604 | 83 | 210 | 1.0 | 6.0 | 0.00 | 0.00 | 0.00 | 22 | 1014.1 |
| 20260506123503 | 83 | 208 | 1.0 | 6.0 | 0.00 | 0.00 | 0.00 | 21 | 1014.2 |
| 20260506123404 | 83 | 212 | 1.0 | 6.0 | 0.00 | 0.00 | 0.00 | 22 | 1014.0 |
| 20260506123325 | 83 | 210 | 1.0 | 6.0 | 0.00 | 0.00 | 0.00 | 23 | 1014.1 |
| 20260506123225 | 84 | 206 | 1.0 | 6.0 | 0.00 | 0.00 | 0.00 | 23 | 1014.1 |
| 20260506123104 | 85 | 204 | 0.0 | 4.0 | 0.00 | 0.00 | 0.00 | 23 | 1014.2 |
| 20260506123030 | 85 | 216 | 1.0 | 4.0 | 0.00 | 0.00 | 0.00 | 22 | 1014.0 |
| 20260506122904 | 84 | 211 | 1.0 | 6.0 | 0.00 | 0.00 | 0.00 | 23 | 1014.0 |
| 20260506122803 | 84 | 208 | 1.0 | 6.0 | 0.00 | 0.00 | 0.00 | 22 | 1014.3 |
| 20260506122703 | 83 | 207 | 1.0 | 6.0 | 0.00 | 0.00 | 0.00 | 23 | 1014.3 |
| 20260506122605 | 83 | 204 | 1.0 | 6.0 | 0.00 | 0.00 | 0.00 | 22 | 1014.2 |
| 20260506122205 | 83 | 205 | 1.0 | 6.0 | 0.00 | 0.00 | 0.00 | 22 | 1014.3 |
| 20260506122103 | 83 | 204 | 1.0 | 6.0 | 0.00 | 0.00 | 0.00 | 22 | 1014.3 |
| 20260506122003 | 84 | 198 | 1.0 | 6.0 | 0.00 | 0.00 | 0.00 | 22 | 1014.1 |
| 20260506121903 | 84 | 196 | 0.0 | 4.0 | 0.00 | 0.00 | 0.00 | 21 | 1014.3 |
| 20260506121803 | 84 | 197 | 0.0 | 4.0 | 0.00 | 0.00 | 0.00 | 21 | 1014.6 |
| 20260506121703 | 84 | 197 | 0.0 | 4.0 | 0.00 | 0.00 | 0.00 | 23 | 1014.3 |
| 20260506121603 | 84 | 199 | 0.0 | 4.0 | 0.00 | 0.00 | 0.00 | 22 | 1014.3 |
| 20260506121503 | 84 | 195 | 0.0 | 4.0 | 0.00 | 0.00 | 0.00 | 23 | 1014.2 |
| 20260506121403 | 84 | 188 | 0.0 | 4.0 | 0.00 | 0.00 | 0.00 | 22 | 1014.6 |
| 20260506121324 | 84 | 178 | 0.0 | 4.0 | 0.00 | 0.00 | 0.00 | 23 | 1014.2 |
| 20260506121203 | 84 | 177 | 0.0 | 4.0 | 0.00 | 0.00 | 0.00 | 22 | 1014.3 |
| 20260506121103 | 84 | 177 | 0.0 | 4.0 | 0.00 | 0.00 | 0.00 | 23 | 1014.1 |
| 20260506121024 | 84 | 178 | 0.0 | 4.0 | 0.00 | 0.00 | 0.00 | 23 | 1014.4 |
| 20260506120924 | 84 | 176 | 0.0 | 4.0 | 0.00 | 0.00 | 0.00 | 22 | 1014.4 |
| 20260506120803 | 84 | 171 | 0.0 | 4.0 | 0.00 | 0.00 | 0.00 | 22 | 1014.6 |
| 20260506120703 | 84 | 173 | 0.0 | 4.0 | 0.00 | 0.00 | 0.00 | 22 | 1014.4 |
| 20260506120603 | 84 | 176 | 0.0 | 4.0 | 0.00 | 0.00 | 0.00 | 22 | 1014.4 |
| 20260506120503 | 84 | 176 | 0.0 | 4.0 | 0.00 | 0.00 | 0.00 | 22 | 1014.6 |
| 20260506120403 | 84 | 180 | 0.0 | 3.0 | 0.00 | 0.00 | 0.00 | 23 | 1014.6 |
| 20260506120303 | 84 | 180 | 0.0 | 3.0 | 0.00 | 0.00 | 0.00 | 22 | 1014.6 |
| 20260506120203 | 84 | 181 | 1.0 | 6.0 | 0.00 | 0.00 | 0.00 | 23 | 1014.6 |
| 20260506120103 | 83 | 178 | 1.0 | 6.0 | 0.00 | 0.00 | 0.00 | 22 | 1014.6 |
| 20260506120003 | 83 | 177 | 1.0 | 6.0 | 0.00 | 0.00 | 0.00 | 22 | 1014.4 |
| 20260506115903 | 83 | 177 | 1.0 | 6.0 | 0.00 | 0.00 | 0.00 | 22 | 1014.4 |
| 20260506115803 | 84 | 176 | 1.0 | 6.0 | 0.00 | 0.00 | 0.00 | 21 | 1014.4 |
| 20260506115703 | 83 | 174 | 1.0 | 6.0 | 0.00 | 0.00 | 0.00 | 23 | 1014.6 |
| 20260506115603 | 83 | 172 | 1.0 | 6.0 | 0.00 | 0.00 | 0.00 | 21 | 1014.3 |
| 20260506115503 | 83 | 171 | 1.0 | 6.0 | 0.00 | 0.00 | 0.00 | 22 | 1014.4 |
| 20260506115403 | 83 | 171 | 1.0 | 6.0 | 0.00 | 0.00 | 0.00 | 22 | 1014.3 |
| 20260506115306 | 83 | 170 | 1.0 | 6.0 | 0.00 | 0.00 | 0.00 | 23 | 1014.7 |
| 20260506115203 | 83 | 173 | 1.0 | 6.0 | 0.00 | 0.00 | 0.00 | 22 | 1014.6 |
| 20260506115103 | 83 | 179 | 1.0 | 6.0 | 0.00 | 0.00 | 0.00 | 21 | 1014.6 |
| 20260506115003 | 83 | 180 | 1.0 | 6.0 | 0.00 | 0.00 | 0.00 | 22 | 1014.7 |
| 20260506114903 | 83 | 181 | 1.0 | 6.0 | 0.00 | 0.00 | 0.00 | 22 | 1014.4 |
| 20260506114803 | 83 | 182 | 1.0 | 6.0 | 0.00 | 0.00 | 0.00 | 22 | 1014.4 |
| 20260506114703 | 83 | 184 | 1.0 | 6.0 | 0.00 | 0.00 | 0.00 | 22 | 1014.6 |
| 20260506114603 | 83 | 184 | 1.0 | 6.0 | 0.00 | 0.00 | 0.00 | 23 | 1014.9 |
| 20260506114503 | 83 | 188 | 1.0 | 6.0 | 0.00 | 0.00 | 0.00 | 22 | 1014.7 |
| 20260506114403 | 84 | 195 | 0.0 | 4.0 | 0.00 | 0.00 | 0.00 | 23 | 1014.7 |
| 20260506114303 | 84 | 201 | 0.0 | 4.0 | 0.00 | 0.00 | 0.00 | 23 | 1014.8 |
| 20260506114203 | 85 | 193 | 0.0 | 4.0 | 0.00 | 0.00 | 0.00 | 21 | 1014.3 |
| 20260506114103 | 85 | 172 | 0.0 | 3.0 | 0.00 | 0.00 | 0.00 | 23 | 1014.4 |
| 20260506114024 | 85 | 176 | 0.0 | 2.0 | 0.00 | 0.00 | 0.00 | 23 | 1014.6 |
| 20260506113904 | 85 | 186 | 0.0 | 2.0 | 0.00 | 0.00 | 0.00 | 21 | 1014.7 |
| 20260506113803 | 85 | 186 | 0.0 | 2.0 | 0.00 | 0.00 | 0.00 | 22 | 1014.8 |
| 20260506113724 | 84 | 186 | 0.0 | 2.0 | 0.00 | 0.00 | 0.00 | 21 | 1014.8 |
| 20260506113603 | 84 | 191 | 0.0 | 2.0 | 0.00 | 0.00 | 0.00 | 22 | 1014.8 |
| 20260506113503 | 83 | 191 | 0.0 | 2.0 | 0.00 | 0.00 | 0.00 | 23 | 1014.7 |
| 20260506113424 | 83 | 191 | 0.0 | 2.0 | 0.00 | 0.00 | 0.00 | 23 | 1014.7 |
| 20260506113303 | 83 | 194 | 0.0 | 2.0 | 0.00 | 0.00 | 0.00 | 22 | 1014.9 |
| 20260506113224 | 83 | 195 | 0.0 | 3.0 | 0.00 | 0.00 | 0.00 | 23 | 1014.8 |
| 20260506113103 | 84 | 181 | 1.0 | 7.0 | 0.00 | 0.00 | 0.00 | 22 | 1014.6 |
| 20260506113003 | 84 | 176 | 1.0 | 7.0 | 0.00 | 0.00 | 0.00 | 22 | 1014.9 |
| 20260506112903 | 84 | 173 | 1.0 | 7.0 | 0.00 | 0.00 | 0.00 | 22 | 1014.8 |
| 20260506112803 | 84 | 170 | 1.0 | 7.0 | 0.00 | 0.00 | 0.00 | 22 | 1014.9 |
| 20260506112703 | 84 | 170 | 1.0 | 7.0 | 0.00 | 0.00 | 0.00 | 22 | 1014.7 |
| 20260506112603 | 83 | 170 | 1.0 | 7.0 | 0.00 | 0.00 | 0.00 | 22 | 1015.0 |
| 20260506112503 | 83 | 170 | 1.0 | 7.0 | 0.00 | 0.00 | 0.00 | 24 | 1014.8 |
| 20260506112403 | 83 | 169 | 1.0 | 7.0 | 0.00 | 0.00 | 0.00 | 23 | 1014.9 |
| 20260506112305 | 83 | 169 | 1.0 | 7.0 | 0.00 | 0.00 | 0.00 | 23 | 1015.0 |
| 20260506112203 | 84 | 165 | 1.0 | 7.0 | 0.00 | 0.00 | 0.00 | 22 | 1014.8 |
| 20260506112103 | 84 | 168 | 0.0 | 6.0 | 0.00 | 0.00 | 0.00 | 23 | 1015.0 |
| 20260506112003 | 84 | 170 | 0.0 | 6.0 | 0.00 | 0.00 | 0.00 | 24 | 1014.9 |
| 20260506111903 | 84 | 171 | 0.0 | 6.0 | 0.00 | 0.00 | 0.00 | 24 | 1014.9 |
| 20260506111803 | 84 | 183 | 0.0 | 3.0 | 0.00 | 0.00 | 0.00 | 24 | 1014.8 |
| 20260506111703 | 84 | 194 | 1.0 | 6.0 | 0.00 | 0.00 | 0.00 | 23 | 1014.8 |
| 20260506111624 | 84 | 194 | 1.0 | 6.0 | 0.00 | 0.00 | 0.00 | 24 | 1014.4 |
| 20260506111503 | 83 | 196 | 1.0 | 6.0 | 0.00 | 0.00 | 0.00 | 24 | 1015.1 |
| 20260506111403 | 83 | 201 | 1.0 | 6.0 | 0.00 | 0.00 | 0.00 | 23 | 1014.8 |
| 20260506111303 | 83 | 202 | 1.0 | 6.0 | 0.00 | 0.00 | 0.00 | 24 | 1015.0 |
| 20260506111203 | 82 | 202 | 1.0 | 6.0 | 0.00 | 0.00 | 0.00 | 23 | 1015.0 |
| 20260506111103 | 82 | 206 | 1.0 | 6.0 | 0.00 | 0.00 | 0.00 | 23 | 1014.8 |
| 20260506111003 | 82 | 203 | 1.0 | 6.0 | 0.00 | 0.00 | 0.00 | 25 | 1014.8 |
| 20260506110903 | 82 | 205 | 1.0 | 7.0 | 0.00 | 0.00 | 0.00 | 24 | 1014.8 |
| 20260506110803 | 82 | 206 | 1.0 | 7.0 | 0.00 | 0.00 | 0.00 | 24 | 1015.1 |
| 20260506110703 | 82 | 206 | 1.0 | 7.0 | 0.00 | 0.00 | 0.00 | 24 | 1014.9 |
| 20260506110603 | 82 | 204 | 1.0 | 7.0 | 0.00 | 0.00 | 0.00 | 23 | 1014.9 |
| 20260506110503 | 82 | 203 | 1.0 | 7.0 | 0.00 | 0.00 | 0.00 | 24 | 1015.0 |
| 20260506110403 | 82 | 197 | 1.0 | 7.0 | 0.00 | 0.00 | 0.00 | 24 | 1015.0 |
| 20260506110303 | 82 | 195 | 1.0 | 7.0 | 0.00 | 0.00 | 0.00 | 24 | 1014.9 |
| 20260506110203 | 82 | 197 | 1.0 | 7.0 | 0.00 | 0.00 | 0.00 | 24 | 1015.0 |
| 20260506110103 | 82 | 203 | 1.0 | 7.0 | 0.00 | 0.00 | 0.00 | 23 | 1015.0 |
| 20260506110004 | 82 | 205 | 1.0 | 7.0 | 0.00 | 0.00 | 0.00 | 24 | 1015.0 |
| 20260506105903 | 82 | 206 | 1.0 | 6.0 | 0.00 | 0.00 | 0.00 | 24 | 1014.9 |
| 20260506105803 | 81 | 206 | 1.0 | 6.0 | 0.00 | 0.00 | 0.00 | 25 | 1015.0 |
| 20260506105703 | 81 | 205 | 2.0 | 6.0 | 0.00 | 0.00 | 0.00 | 25 | 1015.3 |
| 20260506105603 | 81 | 207 | 2.0 | 7.0 | 0.00 | 0.00 | 0.00 | 24 | 1015.0 |
| 20260506105503 | 81 | 210 | 2.0 | 7.0 | 0.00 | 0.00 | 0.00 | 25 | 1015.1 |
| 20260506105424 | 81 | 210 | 2.0 | 7.0 | 0.00 | 0.00 | 0.00 | 24 | 1015.1 |
| 20260506105305 | 81 | 217 | 2.0 | 8.0 | 0.00 | 0.00 | 0.00 | 24 | 1015.2 |
| 20260506105203 | 81 | 218 | 2.0 | 8.0 | 0.00 | 0.00 | 0.00 | 24 | 1015.1 |
| 20260506105103 | 81 | 216 | 2.0 | 8.0 | 0.00 | 0.00 | 0.00 | 25 | 1015.1 |
| 20260506105003 | 80 | 215 | 2.0 | 8.0 | 0.00 | 0.00 | 0.00 | 26 | 1015.1 |
| 20260506104903 | 80 | 211 | 2.0 | 8.0 | 0.00 | 0.00 | 0.00 | 26 | 1015.1 |
| 20260506104803 | 81 | 211 | 2.0 | 8.0 | 0.00 | 0.00 | 0.00 | 25 | 1015.2 |
| 20260506104703 | 81 | 212 | 2.0 | 8.0 | 0.00 | 0.00 | 0.00 | 25 | 1015.0 |
| 20260506104624 | 81 | 211 | 1.0 | 8.0 | 0.00 | 0.00 | 0.00 | 25 | 1015.0 |
| 20260506104503 | 82 | 206 | 1.0 | 8.0 | 0.00 | 0.00 | 0.00 | 24 | 1015.0 |
| 20260506104403 | 83 | 194 | 1.0 | 6.0 | 0.00 | 0.00 | 0.00 | 24 | 1015.1 |
| 20260506104303 | 83 | 185 | 1.0 | 6.0 | 0.00 | 0.00 | 0.00 | 25 | 1015.1 |
| 20260506104203 | 83 | 179 | 0.0 | 6.0 | 0.00 | 0.00 | 0.00 | 25 | 1015.0 |
| 20260506104124 | 83 | 180 | 0.0 | 6.0 | 0.00 | 0.00 | 0.00 | 25 | 1015.1 |
| 20260506104003 | 83 | 176 | 1.0 | 6.0 | 0.00 | 0.00 | 0.00 | 24 | 1015.2 |
| 20260506103903 | 82 | 172 | 1.0 | 6.0 | 0.00 | 0.00 | 0.00 | 26 | 1015.0 |
| 20260506103803 | 82 | 172 | 1.0 | 6.0 | 0.00 | 0.00 | 0.00 | 25 | 1015.0 |
| 20260506103703 | 82 | 172 | 0.0 | 6.0 | 0.00 | 0.00 | 0.00 | 24 | 1015.2 |
| 20260506103624 | 82 | 172 | 1.0 | 6.0 | 0.00 | 0.00 | 0.00 | 25 | 1015.3 |
| 20260506103503 | 81 | 172 | 1.0 | 6.0 | 0.00 | 0.00 | 0.00 | 25 | 1015.0 |
| 20260506103403 | 81 | 170 | 1.0 | 7.0 | 0.00 | 0.00 | 0.00 | 25 | 1015.0 |
| 20260506103303 | 81 | 171 | 1.0 | 7.0 | 0.00 | 0.00 | 0.00 | 26 | 1015.4 |
| 20260506103224 | 81 | 168 | 1.0 | 7.0 | 0.00 | 0.00 | 0.00 | 25 | 1015.3 |
| 20260506103125 | 81 | 170 | 1.0 | 7.0 | 0.00 | 0.00 | 0.00 | 26 | 1015.2 |
| 20260506103003 | 81 | 172 | 1.0 | 7.0 | 0.00 | 0.00 | 0.00 | 25 | 1014.9 |
| 20260506102903 | 81 | 173 | 1.0 | 7.0 | 0.00 | 0.00 | 0.00 | 25 | 1015.2 |
| 20260506102803 | 81 | 175 | 1.0 | 7.0 | 0.00 | 0.00 | 0.00 | 26 | 1015.2 |
| 20260506102704 | 81 | 184 | 2.0 | 7.0 | 0.00 | 0.00 | 0.00 | 25 | 1015.0 |
| 20260506102624 | 81 | 185 | 1.0 | 7.0 | 0.00 | 0.00 | 0.00 | 25 | 1015.2 |
| 20260506102503 | 81 | 187 | 1.0 | 7.0 | 0.00 | 0.00 | 0.00 | 25 | 1015.3 |
| 20260506102403 | 81 | 194 | 1.0 | 6.0 | 0.00 | 0.00 | 0.00 | 25 | 1015.2 |
| 20260506102305 | 81 | 197 | 1.0 | 6.0 | 0.00 | 0.00 | 0.00 | 26 | 1015.4 |
| 20260506102203 | 81 | 201 | 1.0 | 6.0 | 0.00 | 0.00 | 0.00 | 26 | 1015.3 |
| 20260506102103 | 81 | 203 | 1.0 | 6.0 | 0.00 | 0.00 | 0.00 | 25 | 1015.2 |
| 20260506102024 | 81 | 205 | 1.0 | 6.0 | 0.00 | 0.00 | 0.00 | 25 | 1015.0 |
| 20260506101903 | 82 | 209 | 1.0 | 6.0 | 0.00 | 0.00 | 0.00 | 27 | 1015.2 |
| 20260506101803 | 82 | 208 | 1.0 | 6.0 | 0.00 | 0.00 | 0.00 | 25 | 1015.2 |
| 20260506101703 | 82 | 199 | 0.0 | 3.0 | 0.00 | 0.00 | 0.00 | 25 | 1015.4 |
| 20260506101624 | 82 | 199 | 0.0 | 3.0 | 0.00 | 0.00 | 0.00 | 25 | 1015.4 |
| 20260506101503 | 82 | 206 | 1.0 | 4.0 | 0.00 | 0.00 | 0.00 | 26 | 1015.3 |
| 20260506101403 | 82 | 204 | 1.0 | 4.0 | 0.00 | 0.00 | 0.00 | 25 | 1015.4 |
| 20260506101303 | 82 | 204 | 1.0 | 6.0 | 0.00 | 0.00 | 0.00 | 26 | 1015.2 |
| 20260506101203 | 82 | 202 | 1.0 | 6.0 | 0.00 | 0.00 | 0.00 | 25 | 1015.2 |
| 20260506101103 | 82 | 202 | 1.0 | 6.0 | 0.00 | 0.00 | 0.00 | 27 | 1015.3 |
| 20260506101003 | 81 | 203 | 1.0 | 6.0 | 0.00 | 0.00 | 0.00 | 26 | 1015.1 |
| 20260506100903 | 81 | 200 | 1.0 | 6.0 | 0.00 | 0.00 | 0.00 | 27 | 1015.3 |
| 20260506100803 | 81 | 204 | 1.0 | 6.0 | 0.00 | 0.00 | 0.00 | 26 | 1015.1 |
| 20260506100703 | 81 | 204 | 1.0 | 6.0 | 0.00 | 0.00 | 0.00 | 26 | 1015.1 |
| 20260506100603 | 80 | 204 | 1.0 | 6.0 | 0.00 | 0.00 | 0.00 | 26 | 1015.3 |
| 20260506100503 | 80 | 201 | 1.0 | 6.0 | 0.00 | 0.00 | 0.00 | 28 | 1015.1 |
| 20260506100403 | 80 | 203 | 1.0 | 6.0 | 0.00 | 0.00 | 0.00 | 27 | 1015.3 |
| 20260506100303 | 80 | 199 | 1.0 | 6.0 | 0.00 | 0.00 | 0.00 | 28 | 1015.3 |
| 20260506100203 | 80 | 204 | 2.0 | 6.0 | 0.00 | 0.00 | 0.00 | 27 | 1015.3 |
| 20260506100103 | 80 | 211 | 2.0 | 6.0 | 0.00 | 0.00 | 0.00 | 28 | 1015.3 |
| 20260506100004 | 80 | 211 | 2.0 | 6.0 | 0.00 | 0.00 | 0.00 | 28 | 1015.3 |
| 20260506095924 | 80 | 214 | 1.0 | 6.0 | 0.00 | 0.00 | 0.00 | 27 | 1015.2 |
| 20260506095803 | 80 | 206 | 1.0 | 6.0 | 0.00 | 0.00 | 0.00 | 28 | 1015.2 |
| 20260506095703 | 79 | 208 | 1.0 | 6.0 | 0.00 | 0.00 | 0.00 | 29 | 1015.2 |
| 20260506095603 | 79 | 208 | 1.0 | 6.0 | 0.00 | 0.00 | 0.00 | 28 | 1015.4 |
| 20260506095503 | 79 | 206 | 1.0 | 6.0 | 0.00 | 0.00 | 0.00 | 28 | 1015.4 |
| 20260506095403 | 79 | 206 | 1.0 | 6.0 | 0.00 | 0.00 | 0.00 | 28 | 1015.3 |
| 20260506095305 | 80 | 210 | 1.0 | 6.0 | 0.00 | 0.00 | 0.00 | 29 | 1015.3 |
| 20260506095203 | 80 | 205 | 1.0 | 6.0 | 0.00 | 0.00 | 0.00 | 28 | 1015.2 |
| 20260506095103 | 80 | 198 | 1.0 | 6.0 | 0.00 | 0.00 | 0.00 | 28 | 1015.4 |
| 20260506095003 | 80 | 201 | 1.0 | 6.0 | 0.00 | 0.00 | 0.00 | 27 | 1015.5 |
| 20260506094924 | 80 | 208 | 1.0 | 6.0 | 0.00 | 0.00 | 0.00 | 28 | 1015.4 |
| 20260506094803 | 80 | 217 | 1.0 | 7.0 | 0.00 | 0.00 | 0.00 | 28 | 1015.4 |
| 20260506094703 | 80 | 208 | 1.0 | 7.0 | 0.00 | 0.00 | 0.00 | 28 | 1015.5 |
| 20260506094624 | 80 | 208 | 1.0 | 7.0 | 0.00 | 0.00 | 0.00 | 29 | 1015.3 |
| 20260506094504 | 80 | 206 | 1.0 | 7.0 | 0.00 | 0.00 | 0.00 | 29 | 1015.5 |
| 20260506094403 | 80 | 204 | 1.0 | 7.0 | 0.00 | 0.00 | 0.00 | 29 | 1015.4 |
| 20260506094303 | 80 | 205 | 1.0 | 7.0 | 0.00 | 0.00 | 0.00 | 30 | 1015.4 |
| 20260506094203 | 80 | 213 | 1.0 | 7.0 | 0.00 | 0.00 | 0.00 | 28 | 1015.2 |
| 20260506094124 | 80 | 208 | 1.0 | 7.0 | 0.00 | 0.00 | 0.00 | 28 | 1015.4 |
| 20260506094003 | 80 | 205 | 1.0 | 7.0 | 0.00 | 0.00 | 0.00 | 28 | 1015.4 |
| 20260506093903 | 80 | 203 | 1.0 | 7.0 | 0.00 | 0.00 | 0.00 | 28 | 1015.3 |
| 20260506093803 | 80 | 199 | 1.0 | 6.0 | 0.00 | 0.00 | 0.00 | 29 | 1015.5 |
| 20260506093703 | 79 | 202 | 1.0 | 8.0 | 0.00 | 0.00 | 0.00 | 28 | 1015.3 |
| 20260506093603 | 79 | 202 | 1.0 | 8.0 | 0.00 | 0.00 | 0.00 | 29 | 1015.4 |
| 20260506093503 | 78 | 200 | 1.0 | 8.0 | 0.00 | 0.00 | 0.00 | 29 | 1015.4 |
| 20260506093403 | 78 | 201 | 1.0 | 8.0 | 0.00 | 0.00 | 0.00 | 30 | 1015.4 |
| 20260506093303 | 79 | 200 | 1.0 | 8.0 | 0.00 | 0.00 | 0.00 | 29 | 1015.5 |
| 20260506093203 | 79 | 196 | 1.0 | 8.0 | 0.00 | 0.00 | 0.00 | 28 | 1015.5 |
| 20260506093103 | 79 | 192 | 1.0 | 8.0 | 0.00 | 0.00 | 0.00 | 29 | 1015.3 |
| 20260506093003 | 79 | 184 | 1.0 | 8.0 | 0.00 | 0.00 | 0.00 | 29 | 1015.4 |
| 20260506092903 | 79 | 177 | 1.0 | 8.0 | 0.00 | 0.00 | 0.00 | 28 | 1015.6 |
| 20260506092824 | 80 | 177 | 1.0 | 8.0 | 0.00 | 0.00 | 0.00 | 29 | 1015.6 |
| 20260506092703 | 80 | 174 | 0.0 | 4.0 | 0.00 | 0.00 | 0.00 | 29 | 1015.3 |
| 20260506092603 | 80 | 173 | 0.0 | 4.0 | 0.00 | 0.00 | 0.00 | 29 | 1015.6 |
| 20260506092503 | 80 | 182 | 1.0 | 6.0 | 0.00 | 0.00 | 0.00 | 29 | 1015.3 |
| 20260506092403 | 79 | 187 | 1.0 | 6.0 | 0.00 | 0.00 | 0.00 | 30 | 1015.4 |
| 20260506092305 | 79 | 187 | 1.0 | 6.0 | 0.00 | 0.00 | 0.00 | 30 | 1015.5 |
| 20260506092203 | 79 | 193 | 1.0 | 6.0 | 0.00 | 0.00 | 0.00 | 30 | 1015.6 |
| 20260506092103 | 79 | 194 | 1.0 | 6.0 | 0.00 | 0.00 | 0.00 | 30 | 1015.6 |
| 20260506092003 | 79 | 200 | 1.0 | 6.0 | 0.00 | 0.00 | 0.00 | 30 | 1015.5 |
| 20260506091903 | 79 | 201 | 1.0 | 6.0 | 0.00 | 0.00 | 0.00 | 30 | 1015.5 |
| 20260506091803 | 79 | 203 | 1.0 | 6.0 | 0.00 | 0.00 | 0.00 | 29 | 1015.5 |
| 20260506091703 | 79 | 201 | 1.0 | 6.0 | 0.00 | 0.00 | 0.00 | 31 | 1015.6 |
| 20260506091603 | 79 | 197 | 1.0 | 6.0 | 0.00 | 0.00 | 0.00 | 31 | 1015.7 |
| 20260506091503 | 79 | 196 | 1.0 | 6.0 | 0.00 | 0.00 | 0.00 | 30 | 1015.6 |
| 20260506091403 | 79 | 193 | 1.0 | 6.0 | 0.00 | 0.00 | 0.00 | 32 | 1015.5 |
| 20260506091303 | 79 | 186 | 1.0 | 6.0 | 0.00 | 0.00 | 0.00 | 30 | 1015.6 |
| 20260506091203 | 79 | 174 | 1.0 | 6.0 | 0.00 | 0.00 | 0.00 | 31 | 1015.4 |
| 20260506091124 | 79 | 173 | 1.0 | 6.0 | 0.00 | 0.00 | 0.00 | 31 | 1015.7 |
| 20260506091003 | 79 | 173 | 1.0 | 7.0 | 0.00 | 0.00 | 0.00 | 31 | 1015.6 |
| 20260506090903 | 78 | 170 | 1.0 | 7.0 | 0.00 | 0.00 | 0.00 | 32 | 1015.6 |
| 20260506090803 | 78 | 168 | 1.0 | 7.0 | 0.00 | 0.00 | 0.00 | 31 | 1015.5 |
| 20260506090703 | 78 | 167 | 1.0 | 7.0 | 0.00 | 0.00 | 0.00 | 31 | 1015.5 |
| 20260506090603 | 78 | 167 | 1.0 | 7.0 | 0.00 | 0.00 | 0.00 | 31 | 1015.6 |
| 20260506090503 | 78 | 166 | 1.0 | 7.0 | 0.00 | 0.00 | 0.00 | 32 | 1015.7 |
| 20260506090403 | 78 | 167 | 1.0 | 7.0 | 0.00 | 0.00 | 0.00 | 32 | 1015.6 |
| 20260506090303 | 78 | 167 | 1.0 | 7.0 | 0.00 | 0.00 | 0.00 | 32 | 1015.8 |
| 20260506090203 | 78 | 171 | 1.0 | 7.0 | 0.00 | 0.00 | 0.00 | 31 | 1015.6 |
| 20260506090103 | 78 | 171 | 1.0 | 7.0 | 0.00 | 0.00 | 0.00 | 32 | 1015.6 |
| 20260506090024 | 78 | 183 | 1.0 | 7.0 | 0.00 | 0.00 | 0.00 | 32 | 1015.5 |
| 20260506085903 | 78 | 192 | 1.0 | 7.0 | 0.00 | 0.00 | 0.00 | 31 | 1015.4 |
| 20260506085803 | 78 | 193 | 1.0 | 7.0 | 0.00 | 0.00 | 0.00 | 32 | 1015.4 |
| 20260506085703 | 78 | 186 | 1.0 | 7.0 | 0.00 | 0.00 | 0.00 | 31 | 1015.6 |
| 20260506085603 | 78 | 188 | 1.0 | 7.0 | 0.00 | 0.00 | 0.00 | 32 | 1015.7 |
| 20260506085503 | 78 | 196 | 1.0 | 7.0 | 0.00 | 0.00 | 0.00 | 32 | 1015.5 |
| 20260506085424 | 78 | 203 | 1.0 | 6.0 | 0.00 | 0.00 | 0.00 | 32 | 1015.5 |
| 20260506085305 | 78 | 201 | 1.0 | 6.0 | 0.00 | 0.00 | 0.00 | 33 | 1015.6 |
| 20260506085224 | 78 | 203 | 1.0 | 6.0 | 0.00 | 0.00 | 0.00 | 32 | 1015.5 |
| 20260506085103 | 78 | 203 | 1.0 | 6.0 | 0.00 | 0.00 | 0.00 | 32 | 1015.6 |
| 20260506085003 | 77 | 194 | 1.0 | 6.0 | 0.00 | 0.00 | 0.00 | 33 | 1015.5 |
| 20260506084903 | 77 | 194 | 1.0 | 6.0 | 0.00 | 0.00 | 0.00 | 32 | 1015.7 |
| 20260506084803 | 77 | 193 | 1.0 | 6.0 | 0.00 | 0.00 | 0.00 | 34 | 1015.6 |
| 20260506084703 | 76 | 197 | 1.0 | 6.0 | 0.00 | 0.00 | 0.00 | 33 | 1015.5 |
| 20260506084603 | 76 | 196 | 1.0 | 6.0 | 0.00 | 0.00 | 0.00 | 33 | 1015.6 |
| 20260506084503 | 77 | 194 | 1.0 | 6.0 | 0.00 | 0.00 | 0.00 | 34 | 1015.4 |
| 20260506084424 | 77 | 189 | 1.0 | 6.0 | 0.00 | 0.00 | 0.00 | 33 | 1015.4 |
| 20260506084303 | 77 | 186 | 1.0 | 6.0 | 0.00 | 0.00 | 0.00 | 32 | 1015.7 |
| 20260506084203 | 77 | 183 | 1.0 | 6.0 | 0.00 | 0.00 | 0.00 | 33 | 1015.6 |
| 20260506084103 | 77 | 183 | 1.0 | 6.0 | 0.00 | 0.00 | 0.00 | 33 | 1015.5 |
| 20260506084003 | 77 | 184 | 1.0 | 6.0 | 0.00 | 0.00 | 0.00 | 33 | 1015.5 |
| 20260506083924 | 77 | 184 | 1.0 | 6.0 | 0.00 | 0.00 | 0.00 | 32 | 1015.5 |
| 20260506083803 | 77 | 174 | 1.0 | 4.0 | 0.00 | 0.00 | 0.00 | 32 | 1015.6 |
| 20260506083703 | 77 | 176 | 1.0 | 6.0 | 0.00 | 0.00 | 0.00 | 34 | 1015.7 |
| 20260506083603 | 77 | 180 | 1.0 | 6.0 | 0.00 | 0.00 | 0.00 | 34 | 1015.5 |
| 20260506083503 | 77 | 178 | 1.0 | 7.0 | 0.00 | 0.00 | 0.00 | 35 | 1015.7 |
| 20260506083403 | 76 | 180 | 1.0 | 7.0 | 0.00 | 0.00 | 0.00 | 34 | 1015.6 |
| 20260506083324 | 76 | 181 | 1.0 | 7.0 | 0.00 | 0.00 | 0.00 | 35 | 1015.6 |
| 20260506083203 | 76 | 179 | 1.0 | 7.0 | 0.00 | 0.00 | 0.00 | 35 | 1015.4 |
| 20260506083103 | 76 | 179 | 1.0 | 7.0 | 0.00 | 0.00 | 0.00 | 35 | 1015.6 |
| 20260506083003 | 76 | 178 | 1.0 | 7.0 | 0.00 | 0.00 | 0.00 | 35 | 1015.6 |
| 20260506082903 | 75 | 179 | 1.0 | 7.0 | 0.00 | 0.00 | 0.00 | 35 | 1015.7 |
| 20260506082803 | 75 | 181 | 1.0 | 7.0 | 0.00 | 0.00 | 0.00 | 36 | 1015.7 |
| 20260506082703 | 76 | 178 | 1.0 | 7.0 | 0.00 | 0.00 | 0.00 | 36 | 1015.6 |
| 20260506082603 | 76 | 174 | 1.0 | 7.0 | 0.00 | 0.00 | 0.00 | 35 | 1015.4 |
| 20260506082503 | 76 | 174 | 1.0 | 4.0 | 0.00 | 0.00 | 0.00 | 35 | 1015.3 |
| 20260506082403 | 76 | 171 | 1.0 | 4.0 | 0.00 | 0.00 | 0.00 | 35 | 1015.8 |
| 20260506082305 | 76 | 169 | 0.0 | 4.0 | 0.00 | 0.00 | 0.00 | 35 | 1015.6 |
| 20260506082203 | 76 | 168 | 1.0 | 4.0 | 0.00 | 0.00 | 0.00 | 36 | 1015.6 |
| 20260506082103 | 76 | 169 | 1.0 | 6.0 | 0.00 | 0.00 | 0.00 | 35 | 1015.6 |
| 20260506082003 | 76 | 169 | 1.0 | 6.0 | 0.00 | 0.00 | 0.00 | 36 | 1015.5 |
| 20260506081924 | 76 | 170 | 1.0 | 6.0 | 0.00 | 0.00 | 0.00 | 35 | 1015.8 |
| 20260506081803 | 76 | 165 | 1.0 | 6.0 | 0.00 | 0.00 | 0.00 | 35 | 1015.6 |
| 20260506081724 | 76 | 164 | 1.0 | 6.0 | 0.00 | 0.00 | 0.00 | 35 | 1015.6 |
| 20260506081603 | 76 | 170 | 1.0 | 6.0 | 0.00 | 0.00 | 0.00 | 35 | 1015.7 |
| 20260506081503 | 75 | 171 | 1.0 | 6.0 | 0.00 | 0.00 | 0.00 | 37 | 1015.6 |
| 20260506081403 | 75 | 170 | 1.0 | 6.0 | 0.00 | 0.00 | 0.00 | 36 | 1015.6 |
| 20260506081303 | 75 | 169 | 1.0 | 6.0 | 0.00 | 0.00 | 0.00 | 37 | 1015.6 |
| 20260506081203 | 75 | 169 | 1.0 | 6.0 | 0.00 | 0.00 | 0.00 | 36 | 1015.8 |
| 20260506081103 | 75 | 167 | 1.0 | 6.0 | 0.00 | 0.00 | 0.00 | 36 | 1015.7 |
| 20260506081003 | 75 | 167 | 1.0 | 6.0 | 0.00 | 0.00 | 0.00 | 37 | 1015.7 |
| 20260506080903 | 75 | 170 | 1.0 | 6.0 | 0.00 | 0.00 | 0.00 | 37 | 1015.7 |
| 20260506080804 | 75 | 171 | 1.0 | 6.0 | 0.00 | 0.00 | 0.00 | 36 | 1015.7 |
| 20260506080703 | 75 | 174 | 1.0 | 6.0 | 0.00 | 0.00 | 0.00 | 37 | 1015.7 |
| 20260506080603 | 75 | 170 | 1.0 | 6.0 | 0.00 | 0.00 | 0.00 | 36 | 1015.6 |
| 20260506080503 | 75 | 173 | 1.0 | 6.0 | 0.00 | 0.00 | 0.00 | 37 | 1015.8 |
| 20260506080403 | 74 | 179 | 1.0 | 4.0 | 0.00 | 0.00 | 0.00 | 37 | 1015.7 |
| 20260506080303 | 74 | 181 | 1.0 | 4.0 | 0.00 | 0.00 | 0.00 | 37 | 1015.7 |
| 20260506080203 | 74 | 184 | 1.0 | 4.0 | 0.00 | 0.00 | 0.00 | 38 | 1015.8 |
| 20260506080124 | 74 | 189 | 1.0 | 4.0 | 0.00 | 0.00 | 0.00 | 38 | 1015.7 |
| 20260506073524 | 72 | 180 | 1.0 | 4.0 | 0.00 | 0.00 | 0.00 | 42 | 1015.7 |
| 20260506073403 | 72 | 180 | 1.0 | 6.0 | 0.00 | 0.00 | 0.00 | 41 | 1015.6 |
| 20260506073303 | 72 | 183 | 1.0 | 6.0 | 0.00 | 0.00 | 0.00 | 41 | 1015.8 |
| 20260506073203 | 72 | 187 | 1.0 | 6.0 | 0.00 | 0.00 | 0.00 | 40 | 1015.8 |
| 20260506073103 | 72 | 184 | 1.0 | 8.0 | 0.00 | 0.00 | 0.00 | 41 | 1015.7 |
| 20260506073003 | 71 | 186 | 1.0 | 8.0 | 0.00 | 0.00 | 0.00 | 41 | 1015.6 |
| 20260506072903 | 71 | 186 | 1.0 | 8.0 | 0.00 | 0.00 | 0.00 | 41 | 1015.6 |
| 20260506072824 | 71 | 184 | 1.0 | 8.0 | 0.00 | 0.00 | 0.00 | 41 | 1015.9 |
| 20260506072703 | 71 | 184 | 1.0 | 8.0 | 0.00 | 0.00 | 0.00 | 41 | 1015.8 |
| 20260506072603 | 71 | 185 | 1.0 | 8.0 | 0.00 | 0.00 | 0.00 | 41 | 1015.8 |
| 20260506072503 | 71 | 179 | 1.0 | 8.0 | 0.00 | 0.00 | 0.00 | 42 | 1015.6 |
| 20260506072403 | 71 | 181 | 1.0 | 8.0 | 0.00 | 0.00 | 0.00 | 42 | 1015.6 |
| 20260506072305 | 71 | 181 | 1.0 | 8.0 | 0.00 | 0.00 | 0.00 | 42 | 1015.8 |
| 20260506072203 | 72 | 185 | 1.0 | 8.0 | 0.00 | 0.00 | 0.00 | 42 | 1015.8 |
| 20260506072103 | 72 | 201 | 1.0 | 6.0 | 0.00 | 0.00 | 0.00 | 41 | 1015.6 |
| 20260506072003 | 71 | 203 | 1.0 | 6.0 | 0.00 | 0.00 | 0.00 | 42 | 1015.7 |
| 20260506071903 | 71 | 203 | 0.0 | 6.0 | 0.00 | 0.00 | 0.00 | 42 | 1016.0 |
| 20260506071803 | 71 | 214 | 0.0 | 6.0 | 0.00 | 0.00 | 0.00 | 43 | 1015.7 |
| 20260506071703 | 71 | 212 | 0.0 | 6.0 | 0.00 | 0.00 | 0.00 | 43 | 1015.7 |
| 20260506071603 | 70 | 203 | 0.0 | 6.0 | 0.00 | 0.00 | 0.00 | 43 | 1015.8 |
| 20260506071503 | 70 | 203 | 0.0 | 6.0 | 0.00 | 0.00 | 0.00 | 44 | 1015.6 |
| 20260506071424 | 70 | 202 | 0.0 | 6.0 | 0.00 | 0.00 | 0.00 | 44 | 1015.8 |
| 20260506071324 | 70 | 200 | 0.0 | 6.0 | 0.00 | 0.00 | 0.00 | 44 | 1015.9 |
| 20260506071224 | 70 | 196 | 0.0 | 6.0 | 0.00 | 0.00 | 0.00 | 43 | 1015.8 |
| 20260506071103 | 70 | 171 | 0.0 | 3.0 | 0.00 | 0.00 | 0.00 | 43 | 1015.8 |
| 20260506071003 | 70 | 181 | 0.0 | 4.0 | 0.00 | 0.00 | 0.00 | 44 | 1015.6 |
| 20260506070903 | 69 | 190 | 1.0 | 4.0 | 0.00 | 0.00 | 0.00 | 44 | 1015.9 |
| 20260506070803 | 69 | 193 | 1.0 | 4.0 | 0.00 | 0.00 | 0.00 | 45 | 1015.7 |
| 20260506070703 | 69 | 196 | 1.0 | 4.0 | 0.00 | 0.00 | 0.00 | 45 | 1015.8 |
| 20260506070624 | 69 | 197 | 1.0 | 4.0 | 0.00 | 0.00 | 0.00 | 45 | 1015.9 |
| 20260506070503 | 68 | 198 | 1.0 | 4.0 | 0.00 | 0.00 | 0.00 | 45 | 1015.9 |
| 20260506070403 | 68 | 200 | 1.0 | 4.0 | 0.00 | 0.00 | 0.00 | 45 | 1015.7 |
| 20260506070303 | 68 | 201 | 1.0 | 4.0 | 0.00 | 0.00 | 0.00 | 45 | 1015.8 |
| 20260506070226 | 68 | 198 | 1.0 | 4.0 | 0.00 | 0.00 | 0.00 | 46 | 1015.7 |
| 20260506070103 | 68 | 200 | 1.0 | 4.0 | 0.00 | 0.00 | 0.00 | 46 | 1015.9 |
| 20260506062503 | 66 | 183 | 1.0 | 6.0 | 0.00 | 0.00 | 0.00 | 48 | 1015.9 |
| 20260506062403 | 66 | 188 | 1.0 | 6.0 | 0.00 | 0.00 | 0.00 | 48 | 1015.8 |
| 20260506062324 | 66 | 185 | 1.0 | 6.0 | 0.00 | 0.00 | 0.00 | 48 | 1015.7 |
| 20260506062203 | 66 | 184 | 1.0 | 6.0 | 0.00 | 0.00 | 0.00 | 49 | 1015.8 |
| 20260506062103 | 66 | 185 | 0.0 | 6.0 | 0.00 | 0.00 | 0.00 | 48 | 1015.6 |
| 20260506062003 | 66 | 182 | 0.0 | 4.0 | 0.00 | 0.00 | 0.00 | 49 | 1015.9 |
| 20260506061903 | 66 | 178 | 0.0 | 4.0 | 0.00 | 0.00 | 0.00 | 48 | 1015.8 |
| 20260506061803 | 66 | 174 | 1.0 | 4.0 | 0.00 | 0.00 | 0.00 | 48 | 1015.8 |
| 20260506061703 | 66 | 181 | 1.0 | 6.0 | 0.00 | 0.00 | 0.00 | 48 | 1015.9 |
| 20260506061603 | 66 | 183 | 1.0 | 6.0 | 0.00 | 0.00 | 0.00 | 49 | 1016.0 |
| 20260506061524 | 66 | 186 | 1.0 | 6.0 | 0.00 | 0.00 | 0.00 | 49 | 1015.6 |
| 20260506061403 | 66 | 185 | 1.0 | 6.0 | 0.00 | 0.00 | 0.00 | 48 | 1015.8 |
| 20260506061303 | 65 | 192 | 1.0 | 6.0 | 0.00 | 0.00 | 0.00 | 50 | 1015.8 |
| 20260506061203 | 65 | 198 | 1.0 | 6.0 | 0.00 | 0.00 | 0.00 | 49 | 1015.8 |
| 20260506061124 | 65 | 197 | 1.0 | 6.0 | 0.00 | 0.00 | 0.00 | 49 | 1015.8 |
| 20260506061003 | 65 | 196 | 1.0 | 6.0 | 0.00 | 0.00 | 0.00 | 50 | 1015.8 |
| 20260506060924 | 65 | 197 | 1.0 | 6.0 | 0.00 | 0.00 | 0.00 | 50 | 1015.8 |
| 20260506060803 | 65 | 209 | 1.0 | 6.0 | 0.00 | 0.00 | 0.00 | 49 | 1015.9 |
| 20260506060703 | 64 | 208 | 1.0 | 6.0 | 0.00 | 0.00 | 0.00 | 51 | 1015.9 |
| 20260506060603 | 64 | 207 | 1.0 | 6.0 | 0.00 | 0.00 | 0.00 | 50 | 1015.8 |
| 20260506060503 | 64 | 208 | 1.0 | 6.0 | 0.00 | 0.00 | 0.00 | 51 | 1015.8 |
| 20260506060403 | 64 | 212 | 1.0 | 6.0 | 0.00 | 0.00 | 0.00 | 50 | 1015.8 |
| 20260506060303 | 64 | 213 | 1.0 | 6.0 | 0.00 | 0.00 | 0.00 | 50 | 1015.6 |
| 20260506060203 | 64 | 206 | 0.0 | 6.0 | 0.00 | 0.00 | 0.00 | 51 | 1015.8 |
| 20260506051403 | 61 | 172 | 1.0 | 6.0 | 0.00 | 0.00 | 0.00 | 54 | 1015.8 |
| 20260506051303 | 61 | 176 | 1.0 | 7.0 | 0.00 | 0.00 | 0.00 | 54 | 1015.8 |
| 20260506051203 | 61 | 180 | 1.0 | 7.0 | 0.00 | 0.00 | 0.00 | 55 | 1015.7 |
| 20260506051124 | 61 | 182 | 1.0 | 7.0 | 0.00 | 0.00 | 0.00 | 55 | 1015.6 |
| 20260506051003 | 61 | 190 | 1.0 | 7.0 | 0.00 | 0.00 | 0.00 | 55 | 1015.7 |
| 20260506050903 | 61 | 186 | 1.0 | 7.0 | 0.00 | 0.00 | 0.00 | 55 | 1015.7 |
| 20260506050803 | 60 | 185 | 1.0 | 7.0 | 0.00 | 0.00 | 0.00 | 56 | 1015.8 |
| 20260506050703 | 60 | 185 | 1.0 | 7.0 | 0.00 | 0.00 | 0.00 | 55 | 1015.8 |
| 20260506050603 | 60 | 184 | 1.0 | 7.0 | 0.00 | 0.00 | 0.00 | 56 | 1015.7 |
| 20260506050503 | 60 | 184 | 1.0 | 7.0 | 0.00 | 0.00 | 0.00 | 56 | 1015.4 |
| 20260506050403 | 60 | 184 | 1.0 | 7.0 | 0.00 | 0.00 | 0.00 | 56 | 1015.5 |
| 20260506050324 | 60 | 185 | 1.0 | 7.0 | 0.00 | 0.00 | 0.00 | 56 | 1015.5 |
| 20260506050203 | 60 | 179 | 1.0 | 6.0 | 0.00 | 0.00 | 0.00 | 56 | 1015.6 |
| 20260506050103 | 60 | 173 | 0.0 | 6.0 | 0.00 | 0.00 | 0.00 | 56 | 1015.6 |
| 20260506045103 | 59 | 171 | 1.0 | 6.0 | 0.00 | 0.00 | 0.00 | 58 | 1015.5 |
| 20260506045003 | 58 | 172 | 1.0 | 6.0 | 0.00 | 0.00 | 0.00 | 59 | 1015.7 |
| 20260506044903 | 58 | 172 | 1.0 | 6.0 | 0.00 | 0.00 | 0.00 | 59 | 1015.6 |
| 20260506044803 | 58 | 175 | 1.0 | 6.0 | 0.00 | 0.00 | 0.00 | 58 | 1015.7 |
| 20260506044703 | 58 | 182 | 1.0 | 6.0 | 0.00 | 0.00 | 0.00 | 59 | 1015.3 |
| 20260506044603 | 58 | 182 | 1.0 | 6.0 | 0.00 | 0.00 | 0.00 | 58 | 1015.4 |
| 20260506044503 | 58 | 187 | 1.0 | 6.0 | 0.00 | 0.00 | 0.00 | 59 | 1015.5 |
| 20260506044403 | 58 | 185 | 0.0 | 4.0 | 0.00 | 0.00 | 0.00 | 59 | 1015.5 |
| 20260506044303 | 58 | 187 | 0.0 | 4.0 | 0.00 | 0.00 | 0.00 | 59 | 1015.5 |
| 20260506044224 | 58 | 188 | 0.0 | 4.0 | 0.00 | 0.00 | 0.00 | 59 | 1015.6 |
| 20260506044103 | 58 | 188 | 0.0 | 4.0 | 0.00 | 0.00 | 0.00 | 59 | 1015.5 |
| 20260506044003 | 57 | 196 | 0.0 | 3.0 | 0.00 | 0.00 | 0.00 | 59 | 1015.5 |
| 20260506043903 | 57 | 196 | 0.0 | 3.0 | 0.00 | 0.00 | 0.00 | 60 | 1015.3 |
| 20260506043803 | 58 | 204 | 0.0 | 3.0 | 0.00 | 0.00 | 0.00 | 59 | 1015.6 |
| 20260506043724 | 58 | 184 | 0.0 | 3.0 | 0.00 | 0.00 | 0.00 | 59 | 1015.6 |
| 20260506043603 | 58 | 175 | 0.0 | 3.0 | 0.00 | 0.00 | 0.00 | 59 | 1015.3 |
| 20260506043503 | 58 | 172 | 0.0 | 3.0 | 0.00 | 0.00 | 0.00 | 58 | 1015.5 |
| 20260506043403 | 58 | 170 | 0.0 | 3.0 | 0.00 | 0.00 | 0.00 | 58 | 1015.2 |
| 20260506043303 | 58 | 170 | 0.0 | 3.0 | 0.00 | 0.00 | 0.00 | 58 | 1015.4 |
| 20260506043203 | 57 | 170 | 0.0 | 3.0 | 0.00 | 0.00 | 0.00 | 59 | 1015.7 |
| 20260506043103 | 57 | 170 | 0.0 | 3.0 | 0.00 | 0.00 | 0.00 | 60 | 1015.4 |
| 20260506043003 | 57 | 170 | 0.0 | 3.0 | 0.00 | 0.00 | 0.00 | 61 | 1015.3 |
| 20260506042903 | 57 | 170 | 0.0 | 3.0 | 0.00 | 0.00 | 0.00 | 60 | 1015.4 |
| 20260506042803 | 57 | 170 | 0.0 | 3.0 | 0.00 | 0.00 | 0.00 | 60 | 1015.4 |
| 20260506042724 | 57 | 172 | 0.0 | 3.0 | 0.00 | 0.00 | 0.00 | 60 | 1015.5 |
| 20260506042624 | 57 | 0 | 0.0 | 0.0 | 0.00 | 0.00 | 0.00 | 60 | 1015.3 |
| 20260506042503 | 56 | 0 | 0.0 | 0.0 | 0.00 | 0.00 | 0.00 | 61 | 1015.6 |
| 20260506042404 | 56 | 0 | 0.0 | 0.0 | 0.00 | 0.00 | 0.00 | 61 | 1015.5 |
| 20260506042305 | 56 | 0 | 0.0 | 0.0 | 0.00 | 0.00 | 0.00 | 61 | 1015.4 |
| 20260506042203 | 56 | 0 | 0.0 | 0.0 | 0.00 | 0.00 | 0.00 | 61 | 1015.5 |
| 20260506042103 | 56 | 0 | 0.0 | 0.0 | 0.00 | 0.00 | 0.00 | 61 | 1015.5 |
| 20260506042003 | 56 | 0 | 0.0 | 0.0 | 0.00 | 0.00 | 0.00 | 62 | 1015.5 |
| 20260506041903 | 56 | 0 | 0.0 | 0.0 | 0.00 | 0.00 | 0.00 | 62 | 1015.4 |
| 20260506041803 | 56 | 0 | 0.0 | 0.0 | 0.00 | 0.00 | 0.00 | 62 | 1015.5 |
| 20260506041724 | 56 | 0 | 0.0 | 0.0 | 0.00 | 0.00 | 0.00 | 61 | 1015.5 |
| 20260506041603 | 56 | 0 | 0.0 | 0.0 | 0.00 | 0.00 | 0.00 | 62 | 1015.4 |
| 20260506041524 | 56 | 0 | 0.0 | 0.0 | 0.00 | 0.00 | 0.00 | 62 | 1015.4 |
| 20260506041403 | 55 | 0 | 0.0 | 0.0 | 0.00 | 0.00 | 0.00 | 62 | 1015.3 |
| 20260506041303 | 55 | 0 | 0.0 | 0.0 | 0.00 | 0.00 | 0.00 | 63 | 1015.4 |
| 20260506041203 | 55 | 0 | 0.0 | 0.0 | 0.00 | 0.00 | 0.00 | 62 | 1015.3 |
| 20260506041104 | 55 | 0 | 0.0 | 0.0 | 0.00 | 0.00 | 0.00 | 63 | 1015.4 |
| 20260506041003 | 55 | 0 | 0.0 | 0.0 | 0.00 | 0.00 | 0.00 | 63 | 1015.3 |
| 20260506040924 | 55 | 0 | 0.0 | 0.0 | 0.00 | 0.00 | 0.00 | 63 | 1015.5 |
| 20260506040803 | 54 | 0 | 0.0 | 0.0 | 0.00 | 0.00 | 0.00 | 63 | 1015.3 |
| 20260506040724 | 54 | 0 | 0.0 | 0.0 | 0.00 | 0.00 | 0.00 | 63 | 1015.3 |
| 20260506040603 | 54 | 0 | 0.0 | 0.0 | 0.00 | 0.00 | 0.00 | 63 | 1015.4 |
| 20260506040503 | 54 | 0 | 0.0 | 0.0 | 0.00 | 0.00 | 0.00 | 63 | 1015.4 |
| 20260506040403 | 54 | 0 | 0.0 | 0.0 | 0.00 | 0.00 | 0.00 | 63 | 1015.4 |
| 20260506040303 | 54 | 0 | 0.0 | 0.0 | 0.00 | 0.00 | 0.00 | 64 | 1015.2 |
| 20260506040203 | 54 | 0 | 0.0 | 0.0 | 0.00 | 0.00 | 0.00 | 64 | 1015.4 |
| 20260506040124 | 54 | 0 | 0.0 | 0.0 | 0.00 | 0.00 | 0.00 | 64 | 1015.3 |
| 20260506040003 | 53 | 0 | 0.0 | 0.0 | 0.00 | 0.00 | 0.00 | 65 | 1015.4 |
| 20260506035903 | 53 | 0 | 0.0 | 0.0 | 0.00 | 0.00 | 0.00 | 65 | 1015.3 |
| 20260506035803 | 53 | 163 | 0.0 | 1.0 | 0.00 | 0.00 | 0.00 | 65 | 1015.3 |
| 20260506035703 | 53 | 163 | 0.0 | 1.0 | 0.00 | 0.00 | 0.00 | 65 | 1015.2 |
| 20260506035603 | 53 | 163 | 0.0 | 1.0 | 0.00 | 0.00 | 0.00 | 65 | 1015.4 |
| 20260506035524 | 52 | 163 | 0.0 | 1.0 | 0.00 | 0.00 | 0.00 | 66 | 1015.1 |
| 20260506035403 | 52 | 163 | 0.0 | 1.0 | 0.00 | 0.00 | 0.00 | 67 | 1015.4 |
| 20260506035305 | 52 | 163 | 0.0 | 1.0 | 0.00 | 0.00 | 0.00 | 67 | 1015.3 |
| 20260506035203 | 52 | 163 | 0.0 | 1.0 | 0.00 | 0.00 | 0.00 | 67 | 1015.3 |
| 20260506035124 | 52 | 163 | 0.0 | 1.0 | 0.00 | 0.00 | 0.00 | 68 | 1015.3 |
| 20260506035003 | 52 | 163 | 0.0 | 1.0 | 0.00 | 0.00 | 0.00 | 68 | 1015.2 |
| 20260506034903 | 51 | 163 | 0.0 | 1.0 | 0.00 | 0.00 | 0.00 | 68 | 1015.2 |
| 20260506034803 | 51 | 0 | 0.0 | 0.0 | 0.00 | 0.00 | 0.00 | 68 | 1015.5 |
| 20260506034703 | 51 | 0 | 0.0 | 0.0 | 0.00 | 0.00 | 0.00 | 69 | 1015.2 |
| 20260506034603 | 51 | 0 | 0.0 | 0.0 | 0.00 | 0.00 | 0.00 | 69 | 1015.1 |
| 20260506034503 | 51 | 0 | 0.0 | 0.0 | 0.00 | 0.00 | 0.00 | 69 | 1015.2 |
| 20260506034403 | 51 | 0 | 0.0 | 0.0 | 0.00 | 0.00 | 0.00 | 69 | 1015.3 |
| 20260506034303 | 51 | 0 | 0.0 | 0.0 | 0.00 | 0.00 | 0.00 | 69 | 1015.3 |
| 20260506034203 | 51 | 0 | 0.0 | 0.0 | 0.00 | 0.00 | 0.00 | 69 | 1015.2 |
| 20260506034103 | 51 | 0 | 0.0 | 0.0 | 0.00 | 0.00 | 0.00 | 69 | 1015.2 |
| 20260506034003 | 50 | 0 | 0.0 | 0.0 | 0.00 | 0.00 | 0.00 | 69 | 1015.3 |
| 20260506033903 | 50 | 0 | 0.0 | 0.0 | 0.00 | 0.00 | 0.00 | 70 | 1015.1 |
| 20260506033803 | 50 | 0 | 0.0 | 0.0 | 0.00 | 0.00 | 0.00 | 70 | 1015.0 |
| 20260506033724 | 50 | 0 | 0.0 | 0.0 | 0.00 | 0.00 | 0.00 | 70 | 1015.2 |
| 20260506033603 | 49 | 0 | 0.0 | 0.0 | 0.00 | 0.00 | 0.00 | 71 | 1015.2 |
| 20260506033503 | 49 | 0 | 0.0 | 0.0 | 0.00 | 0.00 | 0.00 | 72 | 1015.2 |
| 20260506033403 | 49 | 0 | 0.0 | 0.0 | 0.00 | 0.00 | 0.00 | 73 | 1015.1 |
| 20260506033303 | 49 | 0 | 0.0 | 0.0 | 0.00 | 0.00 | 0.00 | 73 | 1015.0 |
| 20260506033203 | 48 | 0 | 0.0 | 0.0 | 0.00 | 0.00 | 0.00 | 73 | 1015.1 |
| 20260506033103 | 48 | 0 | 0.0 | 0.0 | 0.00 | 0.00 | 0.00 | 73 | 1015.2 |
| 20260506033024 | 48 | 0 | 0.0 | 0.0 | 0.00 | 0.00 | 0.00 | 73 | 1015.1 |
| 20260506032924 | 48 | 0 | 0.0 | 0.0 | 0.00 | 0.00 | 0.00 | 74 | 1015.2 |
| 20260506032803 | 48 | 0 | 0.0 | 0.0 | 0.00 | 0.00 | 0.00 | 74 | 1015.0 |
| 20260506032703 | 48 | 0 | 0.0 | 0.0 | 0.00 | 0.00 | 0.00 | 74 | 1014.9 |
| 20260506032603 | 48 | 0 | 0.0 | 0.0 | 0.00 | 0.00 | 0.00 | 75 | 1015.1 |
| 20260506032503 | 47 | 0 | 0.0 | 0.0 | 0.00 | 0.00 | 0.00 | 75 | 1015.1 |
| 20260506032403 | 47 | 0 | 0.0 | 0.0 | 0.00 | 0.00 | 0.00 | 75 | 1015.1 |
| 20260506032305 | 47 | 0 | 0.0 | 0.0 | 0.00 | 0.00 | 0.00 | 75 | 1015.0 |
| 20260506032203 | 47 | 0 | 0.0 | 0.0 | 0.00 | 0.00 | 0.00 | 75 | 1015.2 |
| 20260506032103 | 47 | 0 | 0.0 | 0.0 | 0.00 | 0.00 | 0.00 | 75 | 1015.2 |
| 20260506032003 | 47 | 0 | 0.0 | 0.0 | 0.00 | 0.00 | 0.00 | 75 | 1015.1 |
| 20260506031924 | 47 | 0 | 0.0 | 0.0 | 0.00 | 0.00 | 0.00 | 75 | 1015.1 |
| 20260506031824 | 47 | 0 | 0.0 | 0.0 | 0.00 | 0.00 | 0.00 | 75 | 1015.0 |
| 20260506031724 | 47 | 0 | 0.0 | 0.0 | 0.00 | 0.00 | 0.00 | 76 | 1015.1 |
| 20260506031603 | 47 | 0 | 0.0 | 0.0 | 0.00 | 0.00 | 0.00 | 76 | 1014.8 |
| 20260506031524 | 47 | 0 | 0.0 | 0.0 | 0.00 | 0.00 | 0.00 | 76 | 1014.9 |
| 20260506031403 | 47 | 0 | 0.0 | 0.0 | 0.00 | 0.00 | 0.00 | 76 | 1015.0 |
| 20260506031303 | 47 | 0 | 0.0 | 0.0 | 0.00 | 0.00 | 0.00 | 76 | 1015.0 |
| 20260506031203 | 46 | 0 | 0.0 | 0.0 | 0.00 | 0.00 | 0.00 | 76 | 1014.9 |
| 20260506031103 | 46 | 0 | 0.0 | 0.0 | 0.00 | 0.00 | 0.00 | 76 | 1015.0 |
| 20260506031003 | 46 | 0 | 0.0 | 0.0 | 0.00 | 0.00 | 0.00 | 76 | 1014.9 |
| 20260506030924 | 46 | 0 | 0.0 | 0.0 | 0.00 | 0.00 | 0.00 | 76 | 1014.9 |
| 20260506030804 | 46 | 0 | 0.0 | 0.0 | 0.00 | 0.00 | 0.00 | 76 | 1015.1 |
| 20260506030703 | 46 | 0 | 0.0 | 0.0 | 0.00 | 0.00 | 0.00 | 76 | 1014.8 |
| 20260506030603 | 46 | 0 | 0.0 | 0.0 | 0.00 | 0.00 | 0.00 | 76 | 1014.7 |
| 20260506030503 | 46 | 0 | 0.0 | 0.0 | 0.00 | 0.00 | 0.00 | 76 | 1014.8 |
| 20260506030403 | 46 | 0 | 0.0 | 0.0 | 0.00 | 0.00 | 0.00 | 76 | 1014.8 |
| 20260506030303 | 46 | 0 | 0.0 | 0.0 | 0.00 | 0.00 | 0.00 | 76 | 1014.7 |
| 20260506030203 | 46 | 0 | 0.0 | 0.0 | 0.00 | 0.00 | 0.00 | 76 | 1014.8 |
| 20260506030103 | 46 | 0 | 0.0 | 0.0 | 0.00 | 0.00 | 0.00 | 76 | 1014.7 |
| 20260506030003 | 46 | 0 | 0.0 | 0.0 | 0.00 | 0.00 | 0.00 | 76 | 1014.9 |